Time,TemperatureF,DewpointF,PressureIn,WindDirection,WindDirectionDegrees,WindSpeedMPH,WindSpeedGustMPH,Humidity,HourlyPrecipIn,Conditions,Clouds,dailyrainin,SolarRadiationWatts/m^2,SoftwareType,DateUTC
2013-05-04 00:00:00,71.1,69.0,29.75,NW,314,0.0,0.0,93,0.00,,CLR,0.00,0.00,VWS V14.01,2013-05-04 04:00:00,
2013-05-04 00:01:00,71.0,68.9,29.75,NW,314,0.0,0.0,93,0.00,,FEW070,0.00,0.00,VWS V14.01,2013-05-04 04:01:00,
2013-05-04 00:05:00,71.0,68.9,29.75,NW,314,0.0,0.0,93,0.00,,CLR,0.00,0.00,VWS V14.01,2013-05-04 04:05:00,
2013-05-04 00:06:00,71.0,68.9,29.75,NW,314,0.0,0.0,93,0.00,,FEW070,0.00,0.00,VWS V14.01,2013-05-04 04:06:00,
2013-05-04 00:10:00,71.0,68.9,29.75,NW,314,0.0,0.0,93,0.00,,CLR,0.00,0.00,VWS V14.01,2013-05-04 04:10:00,
2013-05-04 00:11:00,70.9,68.8,29.75,NW,314,0.0,0.0,93,0.00,,FEW070,0.00,0.00,VWS V14.01,2013-05-04 04:11:00,
2013-05-04 00:15:00,70.9,68.8,29.75,NW,314,0.0,0.0,93,0.00,,CLR,0.00,0.00,VWS V14.01,2013-05-04 04:15:00,
2013-05-04 00:16:00,71.0,68.9,29.75,NW,314,0.0,0.0,93,0.00,,FEW070,0.00,0.00,VWS V14.01,2013-05-04 04:16:00,
2013-05-04 00:20:00,71.0,69.2,29.75,NW,314,0.0,0.0,94,0.00,,CLR,0.00,0.00,VWS V14.01,2013-05-04 04:20:00,
2013-05-04 00:21:00,71.0,69.2,29.75,NW,314,0.0,0.0,94,0.00,,FEW070,0.00,0.00,VWS V14.01,2013-05-04 04:21:00,
2013-05-04 00:25:00,71.0,69.2,29.75,NW,314,0.0,0.0,94,0.00,,CLR,0.00,0.00,VWS V14.01,2013-05-04 04:25:00,
2013-05-04 00:26:00,71.0,69.2,29.75,NW,314,0.0,0.0,94,0.00,,FEW070,0.00,0.00,VWS V14.01,2013-05-04 04:26:00,
2013-05-04 00:30:00,70.9,69.1,29.75,NW,314,0.0,0.0,94,0.00,,CLR,0.00,0.00,VWS V14.01,2013-05-04 04:30:00,
2013-05-04 00:31:00,70.9,69.1,29.75,NW,314,1.0,1.0,94,0.00,,FEW070,0.00,0.00,VWS V14.01,2013-05-04 04:31:00,
2013-05-04 00:35:00,70.8,69.0,29.75,NW,314,0.0,0.0,94,0.00,,CLR,0.00,0.00,VWS V14.01,2013-05-04 04:35:00,
2013-05-04 00:36:00,70.8,69.0,29.75,NW,314,0.0,0.0,94,0.00,,FEW070,0.00,0.00,VWS V14.01,2013-05-04 04:36:00,
2013-05-04 00:40:00,70.8,69.0,29.75,NW,314,0.0,0.0,94,0.00,,CLR,0.00,0.00,VWS V14.01,2013-05-04 04:40:00,
2013-05-04 00:41:00,70.8,69.0,29.75,NW,314,0.0,1.0,94,0.00,,CLR,0.00,0.00,VWS V14.01,2013-05-04 04:41:00,
2013-05-04 00:45:00,70.8,69.0,29.75,NW,314,1.0,1.0,94,0.00,,CLR,0.00,0.00,VWS V14.01,2013-05-04 04:45:00,
2013-05-04 00:46:00,70.9,69.1,29.75,NW,314,1.0,1.0,94,0.00,,CLR,0.00,0.00,VWS V14.01,2013-05-04 04:46:00,
2013-05-04 00:50:00,70.9,69.1,29.75,NW,314,0.0,2.0,94,0.00,,CLR,0.00,0.00,VWS V14.01,2013-05-04 04:50:00,
2013-05-04 00:51:00,70.9,69.1,29.75,NW,314,0.0,1.0,94,0.00,,CLR,0.00,0.00,VWS V14.01,2013-05-04 04:51:00,
2013-05-04 00:55:00,70.9,69.1,29.75,NW,314,0.0,2.0,94,0.00,,CLR,0.00,0.00,VWS V14.01,2013-05-04 04:55:00,
2013-05-04 00:56:00,71.0,69.2,29.75,NW,314,1.0,2.0,94,0.00,,CLR,0.00,0.00,VWS V14.01,2013-05-04 04:56:00,
2013-05-04 01:00:00,71.0,69.2,29.75,NW,314,1.0,2.0,94,0.00,,CLR,0.00,0.00,VWS V14.01,2013-05-04 05:00:00,
2013-05-04 01:01:00,71.0,69.2,29.75,NW,313,1.0,2.0,94,0.00,,CLR,0.00,0.00,VWS V14.01,2013-05-04 05:01:00,
2013-05-04 01:05:00,71.0,69.2,29.75,NW,313,0.0,1.0,94,0.00,,CLR,0.00,0.00,VWS V14.01,2013-05-04 05:05:00,
2013-05-04 01:06:00,71.0,69.2,29.75,NW,313,1.0,2.0,94,0.00,,CLR,0.00,0.00,VWS V14.01,2013-05-04 05:06:00,
2013-05-04 01:10:00,71.0,69.2,29.75,NW,313,0.0,2.0,94,0.00,,CLR,0.00,0.00,VWS V14.01,2013-05-04 05:10:00,
2013-05-04 01:11:00,71.0,69.2,29.74,NW,313,1.0,3.0,94,0.00,,CLR,0.00,0.00,VWS V14.01,2013-05-04 05:11:00,
2013-05-04 01:15:00,71.0,69.2,29.74,NW,313,2.0,2.0,94,0.00,,CLR,0.00,0.00,VWS V14.01,2013-05-04 05:15:00,
2013-05-04 01:16:00,71.0,69.2,29.74,NW,313,0.0,2.0,94,0.00,,CLR,0.00,0.00,VWS V14.01,2013-05-04 05:16:00,
2013-05-04 01:20:00,71.0,69.2,29.74,NW,313,0.0,2.0,94,0.00,,CLR,0.00,0.00,VWS V14.01,2013-05-04 05:20:00,
2013-05-04 01:21:00,71.0,69.2,29.74,NW,313,0.0,2.0,94,0.00,,CLR,0.00,0.00,VWS V14.01,2013-05-04 05:21:00,
2013-05-04 01:25:00,70.9,69.1,29.74,NW,313,0.0,0.0,94,0.00,,CLR,0.00,0.00,VWS V14.01,2013-05-04 05:25:00,
2013-05-04 01:26:00,70.9,69.1,29.74,NW,313,0.0,0.0,94,0.00,,CLR,0.00,0.00,VWS V14.01,2013-05-04 05:26:00,
2013-05-04 01:30:00,70.9,69.1,29.74,NW,313,0.0,0.0,94,0.00,,CLR,0.00,0.00,VWS V14.01,2013-05-04 05:30:00,
2013-05-04 01:31:00,70.9,69.1,29.74,WNW,299,2.0,3.0,94,0.00,,CLR,0.00,0.00,VWS V14.01,2013-05-04 05:31:00,
2013-05-04 01:35:00,70.9,69.4,29.74,WNW,299,0.0,2.0,95,0.00,,CLR,0.00,0.00,VWS V14.01,2013-05-04 05:35:00,
2013-05-04 01:36:00,70.9,69.4,29.73,WNW,299,0.0,0.0,95,0.00,,CLR,0.00,0.00,VWS V14.01,2013-05-04 05:36:00,
2013-05-04 01:40:00,70.9,69.4,29.73,WNW,299,0.0,1.0,95,0.00,,CLR,0.00,0.00,VWS V14.01,2013-05-04 05:40:00,
2013-05-04 01:41:00,70.9,69.4,29.73,WNW,299,1.0,2.0,95,0.00,,CLR,0.00,0.00,VWS V14.01,2013-05-04 05:41:00,
2013-05-04 01:45:00,70.8,69.0,29.73,WNW,298,1.0,3.0,94,0.00,,CLR,0.00,0.00,VWS V14.01,2013-05-04 05:45:00,
2013-05-04 01:46:00,70.9,69.1,29.73,WNW,298,0.0,2.0,94,0.00,,CLR,0.00,0.00,VWS V14.01,2013-05-04 05:46:00,
2013-05-04 01:50:00,70.8,69.0,29.73,WNW,298,1.0,2.0,94,0.00,,CLR,0.00,0.00,VWS V14.01,2013-05-04 05:50:00,
2013-05-04 01:51:00,70.8,69.0,29.73,WNW,298,0.0,0.0,94,0.00,,CLR,0.00,0.00,VWS V14.01,2013-05-04 05:51:00,
2013-05-04 01:55:00,70.8,69.0,29.73,WNW,298,0.0,0.0,94,0.00,,CLR,0.00,0.00,VWS V14.01,2013-05-04 05:55:00,
2013-05-04 01:56:00,70.8,69.0,29.73,WNW,298,0.0,0.0,94,0.00,,CLR,0.00,0.00,VWS V14.01,2013-05-04 05:56:00,
2013-05-04 02:00:00,70.7,68.9,29.73,WNW,298,1.0,1.0,94,0.00,,CLR,0.00,0.00,VWS V14.01,2013-05-04 06:00:00,
2013-05-04 02:01:00,70.7,68.9,29.73,WNW,292,2.0,4.0,94,0.00,,CLR,0.00,0.00,VWS V14.01,2013-05-04 06:01:00,
2013-05-04 02:05:00,70.8,69.0,29.73,WNW,292,2.0,2.0,94,0.00,,CLR,0.00,0.00,VWS V14.01,2013-05-04 06:05:00,
2013-05-04 02:06:00,70.8,69.3,29.73,WNW,292,1.0,3.0,95,0.00,,CLR,0.00,0.00,VWS V14.01,2013-05-04 06:06:00,
2013-05-04 02:10:00,70.8,69.3,29.73,NW,311,2.0,5.0,95,0.00,,CLR,0.00,0.00,VWS V14.01,2013-05-04 06:10:00,
2013-05-04 02:11:00,70.9,69.4,29.72,WNW,296,0.0,2.0,95,0.00,,CLR,0.00,0.00,VWS V14.01,2013-05-04 06:11:00,
2013-05-04 02:15:00,70.9,69.4,29.72,WNW,296,1.0,2.0,95,0.00,,CLR,0.00,0.00,VWS V14.01,2013-05-04 06:15:00,
2013-05-04 02:16:00,70.9,69.4,29.72,WNW,293,2.0,3.0,95,0.00,,CLR,0.00,0.00,VWS V14.01,2013-05-04 06:16:00,
2013-05-04 02:20:00,70.9,69.4,29.72,WNW,294,2.0,3.0,95,0.00,,CLR,0.00,0.00,VWS V14.01,2013-05-04 06:20:00,
2013-05-04 02:21:00,71.0,69.5,29.72,NW,304,3.0,4.0,95,0.00,,CLR,0.00,0.00,VWS V14.01,2013-05-04 06:21:00,
2013-05-04 02:25:00,71.0,69.5,29.72,WNW,301,1.0,3.0,95,0.00,,CLR,0.00,0.00,VWS V14.01,2013-05-04 06:25:00,
2013-05-04 02:26:00,70.9,69.4,29.72,WNW,302,1.0,3.0,95,0.00,,CLR,0.00,0.00,VWS V14.01,2013-05-04 06:26:00,
2013-05-04 02:30:00,70.9,69.4,29.72,WNW,301,3.0,4.0,95,0.00,,CLR,0.00,0.00,VWS V14.01,2013-05-04 06:30:00,
2013-05-04 02:31:00,70.9,69.4,29.72,WNW,302,2.0,2.0,95,0.00,,CLR,0.00,0.00,VWS V14.01,2013-05-04 06:31:00,
2013-05-04 02:35:00,70.9,69.4,29.72,WNW,302,3.0,4.0,95,0.00,,CLR,0.00,0.00,VWS V14.01,2013-05-04 06:35:00,
2013-05-04 02:36:00,70.8,69.3,29.72,NW,304,2.0,3.0,95,0.00,,CLR,0.00,0.00,VWS V14.01,2013-05-04 06:36:00,
2013-05-04 02:40:00,70.8,69.3,29.72,NW,311,2.0,2.0,95,0.00,,CLR,0.00,0.00,VWS V14.01,2013-05-04 06:40:00,
2013-05-04 02:41:00,70.8,69.3,29.72,NW,311,2.0,3.0,95,0.00,,CLR,0.00,0.00,VWS V14.01,2013-05-04 06:41:00,
2013-05-04 02:45:00,70.8,69.3,29.71,WNW,300,1.0,3.0,95,0.00,,CLR,0.00,0.00,VWS V14.01,2013-05-04 06:45:00,
2013-05-04 02:46:00,70.8,69.3,29.71,WNW,300,1.0,2.0,95,0.00,,CLR,0.00,0.00,VWS V14.01,2013-05-04 06:46:00,
2013-05-04 02:50:00,70.8,69.3,29.71,WNW,300,1.0,2.0,95,0.00,,CLR,0.00,0.00,VWS V14.01,2013-05-04 06:50:00,
2013-05-04 02:51:00,70.8,69.3,29.71,NW,304,1.0,3.0,95,0.00,,CLR,0.00,0.00,VWS V14.01,2013-05-04 06:51:00,
2013-05-04 02:55:00,70.8,69.3,29.71,NW,304,1.0,2.0,95,0.00,,CLR,0.00,0.00,VWS V14.01,2013-05-04 06:55:00,
2013-05-04 02:56:00,70.8,69.3,29.71,WNW,287,1.0,3.0,95,0.00,,CLR,0.00,0.00,VWS V14.01,2013-05-04 06:56:00,
2013-05-04 03:00:00,70.8,69.3,29.71,WNW,293,3.0,5.0,95,0.00,,CLR,0.00,0.00,VWS V14.01,2013-05-04 07:00:00,
2013-05-04 03:01:00,70.8,69.3,29.71,WNW,303,3.0,6.0,95,0.00,,CLR,0.00,0.00,VWS V14.01,2013-05-04 07:01:00,
2013-05-04 03:05:00,70.8,69.3,29.71,NW,309,2.0,6.0,95,0.00,,CLR,0.00,0.00,VWS V14.01,2013-05-04 07:05:00,
2013-05-04 03:06:00,70.8,69.0,29.71,NW,322,3.0,4.0,94,0.00,,CLR,0.00,0.00,VWS V14.01,2013-05-04 07:06:00,
2013-05-04 03:10:00,70.8,69.3,29.71,NW,312,4.0,5.0,95,0.00,,CLR,0.00,0.00,VWS V14.01,2013-05-04 07:10:00,
2013-05-04 03:11:00,70.8,69.3,29.71,WNW,294,2.0,5.0,95,0.00,,CLR,0.00,0.00,VWS V14.01,2013-05-04 07:11:00,
2013-05-04 03:15:00,70.7,68.9,29.71,NW,305,4.0,6.0,94,0.00,,CLR,0.00,0.00,VWS V14.01,2013-05-04 07:15:00,
2013-05-04 03:16:00,70.7,68.9,29.71,WNW,294,2.0,3.0,94,0.00,,CLR,0.00,0.00,VWS V14.01,2013-05-04 07:16:00,
2013-05-04 03:20:00,70.7,68.9,29.71,NW,309,4.0,5.0,94,0.00,,CLR,0.00,0.00,VWS V14.01,2013-05-04 07:20:00,
2013-05-04 03:21:00,70.7,68.9,29.71,West,277,1.0,5.0,94,0.00,,CLR,0.00,0.00,VWS V14.01,2013-05-04 07:21:00,
2013-05-04 03:25:00,70.7,68.9,29.71,WNW,301,1.0,4.0,94,0.00,,CLR,0.00,0.00,VWS V14.01,2013-05-04 07:25:00,
2013-05-04 03:26:00,70.7,68.9,29.71,WNW,296,2.0,6.0,94,0.00,,CLR,0.00,0.00,VWS V14.01,2013-05-04 07:26:00,
2013-05-04 03:30:00,70.7,68.9,29.71,WNW,296,7.0,7.0,94,0.00,,CLR,0.00,0.00,VWS V14.01,2013-05-04 07:30:00,
2013-05-04 03:31:00,70.6,68.8,29.71,WNW,300,2.0,5.0,94,0.00,,CLR,0.00,0.00,VWS V14.01,2013-05-04 07:31:00,
2013-05-04 03:35:00,70.6,68.8,29.71,WNW,292,4.0,5.0,94,0.00,,CLR,0.00,0.00,VWS V14.01,2013-05-04 07:35:00,
2013-05-04 03:36:00,70.6,68.8,29.71,NW,311,1.0,5.0,94,0.00,,CLR,0.00,0.00,VWS V14.01,2013-05-04 07:36:00,
2013-05-04 03:40:00,70.6,68.8,29.71,North,360,3.0,4.0,94,0.00,,CLR,0.00,0.00,VWS V14.01,2013-05-04 07:40:00,
2013-05-04 03:41:00,70.6,68.8,29.71,WNW,296,4.0,8.0,94,0.00,,CLR,0.00,0.00,VWS V14.01,2013-05-04 07:41:00,
2013-05-04 03:45:00,70.5,68.7,29.71,NW,306,3.0,6.0,94,0.00,,CLR,0.00,0.00,VWS V14.01,2013-05-04 07:45:00,
2013-05-04 03:46:00,70.5,68.7,29.71,WNW,303,4.0,5.0,94,0.00,,CLR,0.00,0.00,VWS V14.01,2013-05-04 07:46:00,
2013-05-04 03:50:00,70.5,68.7,29.71,WNW,292,2.0,5.0,94,0.00,,CLR,0.00,0.00,VWS V14.01,2013-05-04 07:50:00,
2013-05-04 03:51:00,70.5,68.7,29.71,WNW,296,1.0,6.0,94,0.00,,CLR,0.00,0.00,VWS V14.01,2013-05-04 07:51:00,
2013-05-04 03:55:00,70.5,68.7,29.71,WNW,289,4.0,4.0,94,0.00,,CLR,0.00,0.00,VWS V14.01,2013-05-04 07:55:00,
2013-05-04 03:56:00,70.4,68.6,29.71,WNW,290,3.0,7.0,94,0.00,,CLR,0.00,0.00,VWS V14.01,2013-05-04 07:56:00,
2013-05-04 04:00:00,70.4,68.6,29.71,WNW,302,2.0,3.0,94,0.00,,CLR,0.00,0.00,VWS V14.01,2013-05-04 08:00:00,
2013-05-04 04:01:00,70.4,68.6,29.71,NW,313,2.0,5.0,94,0.00,,CLR,0.00,0.00,VWS V14.01,2013-05-04 08:01:00,
2013-05-04 04:05:00,70.4,68.6,29.71,WNW,292,8.0,8.0,94,0.00,,CLR,0.00,0.00,VWS V14.01,2013-05-04 08:05:00,
2013-05-04 04:06:00,70.4,68.6,29.71,WNW,286,5.0,6.0,94,0.00,,CLR,0.00,0.00,VWS V14.01,2013-05-04 08:06:00,
2013-05-04 04:10:00,70.4,68.6,29.71,WNW,294,4.0,8.0,94,0.00,,CLR,0.00,0.00,VWS V14.01,2013-05-04 08:10:00,
2013-05-04 04:11:00,70.4,68.6,29.71,WNW,299,4.0,8.0,94,0.00,,CLR,0.00,0.00,VWS V14.01,2013-05-04 08:11:00,
2013-05-04 04:15:00,70.4,68.6,29.72,West,263,4.0,8.0,94,0.00,,CLR,0.00,0.00,VWS V14.01,2013-05-04 08:15:00,
2013-05-04 04:16:00,70.4,68.6,29.72,WNW,300,1.0,2.0,94,0.00,,CLR,0.00,0.00,VWS V14.01,2013-05-04 08:16:00,
2013-05-04 04:20:00,70.3,68.5,29.72,NW,306,4.0,5.0,94,0.00,,CLR,0.00,0.00,VWS V14.01,2013-05-04 08:20:00,
2013-05-04 04:21:00,70.3,68.5,29.72,WNW,292,2.0,7.0,94,0.00,,CLR,0.00,0.00,VWS V14.01,2013-05-04 08:21:00,
2013-05-04 04:25:00,70.3,68.5,29.72,NW,306,3.0,4.0,94,0.00,,CLR,0.00,0.00,VWS V14.01,2013-05-04 08:25:00,
2013-05-04 04:26:00,70.3,68.5,29.72,WNW,291,4.0,4.0,94,0.00,,CLR,0.00,0.00,VWS V14.01,2013-05-04 08:26:00,
2013-05-04 04:30:00,70.2,68.4,29.72,WNW,301,2.0,5.0,94,0.00,,CLR,0.00,0.00,VWS V14.01,2013-05-04 08:30:00,
2013-05-04 04:31:00,70.2,68.4,29.72,WNW,292,4.0,5.0,94,0.00,,CLR,0.00,0.00,VWS V14.01,2013-05-04 08:31:00,
2013-05-04 04:35:00,70.2,68.4,29.72,NW,314,2.0,5.0,94,0.00,,CLR,0.00,0.00,VWS V14.01,2013-05-04 08:35:00,
2013-05-04 04:36:00,70.2,68.4,29.72,NW,305,5.0,5.0,94,0.00,,CLR,0.00,0.00,VWS V14.01,2013-05-04 08:36:00,
2013-05-04 04:40:00,70.2,68.4,29.72,NW,315,2.0,5.0,94,0.00,,CLR,0.00,0.00,VWS V14.01,2013-05-04 08:40:00,
2013-05-04 04:41:00,70.2,68.4,29.72,NW,309,2.0,4.0,94,0.00,,CLR,0.00,0.00,VWS V14.01,2013-05-04 08:41:00,
2013-05-04 04:45:00,70.1,68.3,29.72,NW,317,1.0,4.0,94,0.00,,CLR,0.00,0.00,VWS V14.01,2013-05-04 08:45:00,
2013-05-04 04:46:00,70.1,68.3,29.72,North,360,1.0,5.0,94,0.00,,CLR,0.00,0.00,VWS V14.01,2013-05-04 08:46:00,
2013-05-04 04:50:00,70.1,68.3,29.72,NNW,333,3.0,4.0,94,0.00,,CLR,0.00,0.00,VWS V14.01,2013-05-04 08:50:00,
2013-05-04 04:51:00,70.1,68.3,29.72,NW,324,1.0,4.0,94,0.00,,CLR,0.00,0.00,VWS V14.01,2013-05-04 08:51:00,
2013-05-04 04:55:00,70.0,68.2,29.72,NW,322,2.0,3.0,94,0.00,,CLR,0.00,0.00,VWS V14.01,2013-05-04 08:55:00,
2013-05-04 04:56:00,70.0,68.2,29.72,NW,319,1.0,4.0,94,0.00,,CLR,0.00,0.00,VWS V14.01,2013-05-04 08:56:00,
2013-05-04 05:00:00,69.9,68.1,29.72,NW,317,1.0,3.0,94,0.00,,CLR,0.00,0.00,VWS V14.01,2013-05-04 09:00:00,
2013-05-04 05:01:00,69.9,68.1,29.72,NW,308,2.0,3.0,94,0.00,,CLR,0.00,0.00,VWS V14.01,2013-05-04 09:01:00,
2013-05-04 05:05:00,69.9,67.8,29.72,NNW,336,1.0,4.0,93,0.00,,CLR,0.00,0.00,VWS V14.01,2013-05-04 09:05:00,
2013-05-04 05:06:00,69.8,68.0,29.72,NW,306,0.0,3.0,94,0.00,,CLR,0.00,0.00,VWS V14.01,2013-05-04 09:06:00,
2013-05-04 05:10:00,69.8,68.0,29.72,NW,306,1.0,4.0,94,0.00,,CLR,0.00,0.00,VWS V14.01,2013-05-04 09:10:00,
2013-05-04 05:11:00,69.8,68.0,29.72,NW,306,0.0,2.0,94,0.00,,CLR,0.00,0.00,VWS V14.01,2013-05-04 09:11:00,
2013-05-04 05:15:00,69.8,68.0,29.72,WNW,298,0.0,1.0,94,0.00,,CLR,0.00,0.00,VWS V14.01,2013-05-04 09:15:00,
2013-05-04 05:16:00,69.7,67.9,29.72,WNW,293,1.0,4.0,94,0.00,,CLR,0.00,0.00,VWS V14.01,2013-05-04 09:16:00,
2013-05-04 05:20:00,69.7,67.9,29.72,NW,316,2.0,4.0,94,0.00,,CLR,0.00,0.00,VWS V14.01,2013-05-04 09:20:00,
2013-05-04 05:21:00,69.7,67.9,29.72,NW,306,2.0,3.0,94,0.00,,CLR,0.00,0.00,VWS V14.01,2013-05-04 09:21:00,
2013-05-04 05:25:00,69.7,67.9,29.72,WNW,301,0.0,3.0,94,0.00,,CLR,0.00,0.00,VWS V14.01,2013-05-04 09:25:00,
2013-05-04 05:26:00,69.7,67.9,29.72,NW,306,2.0,3.0,94,0.00,,CLR,0.00,0.00,VWS V14.01,2013-05-04 09:26:00,
2013-05-04 05:30:00,69.7,67.9,29.72,NW,306,0.0,2.0,94,0.00,,CLR,0.00,0.00,VWS V14.01,2013-05-04 09:30:00,
2013-05-04 05:31:00,69.6,67.8,29.72,NW,308,2.0,3.0,94,0.00,,CLR,0.00,0.00,VWS V14.01,2013-05-04 09:31:00,
2013-05-04 05:35:00,69.6,67.8,29.72,NW,309,1.0,3.0,94,0.00,,CLR,0.00,0.00,VWS V14.01,2013-05-04 09:35:00,
2013-05-04 05:36:00,69.6,67.8,29.72,NW,309,1.0,3.0,94,0.00,,CLR,0.00,0.00,VWS V14.01,2013-05-04 09:36:00,
2013-05-04 05:40:00,69.6,67.8,29.72,NW,319,0.0,3.0,94,0.00,,CLR,0.00,0.00,VWS V14.01,2013-05-04 09:40:00,
2013-05-04 05:41:00,69.6,67.8,29.72,NW,319,0.0,2.0,94,0.00,,CLR,0.00,0.00,VWS V14.01,2013-05-04 09:41:00,
2013-05-04 05:45:00,69.5,67.7,29.72,NW,319,2.0,2.0,94,0.00,,CLR,0.00,0.00,VWS V14.01,2013-05-04 09:45:00,
2013-05-04 05:46:00,69.5,67.7,29.72,NW,319,0.0,3.0,94,0.00,,CLR,0.00,0.00,VWS V14.01,2013-05-04 09:46:00,
2013-05-04 05:50:00,69.4,67.6,29.72,WNW,303,5.0,5.0,94,0.00,,CLR,0.00,0.00,VWS V14.01,2013-05-04 09:50:00,
2013-05-04 05:51:00,69.4,67.6,29.73,NW,315,1.0,3.0,94,0.00,,CLR,0.00,0.00,VWS V14.01,2013-05-04 09:51:00,
2013-05-04 05:55:00,69.4,67.6,29.73,NW,305,2.0,4.0,94,0.00,,CLR,0.00,0.00,VWS V14.01,2013-05-04 09:55:00,
2013-05-04 05:56:00,69.4,67.6,29.73,NW,309,1.0,2.0,94,0.00,,CLR,0.00,0.00,VWS V14.01,2013-05-04 09:56:00,
2013-05-04 06:00:00,69.3,67.5,29.73,NW,309,1.0,2.0,94,0.00,,CLR,0.00,0.00,VWS V14.01,2013-05-04 10:00:00,
2013-05-04 06:01:00,69.3,67.5,29.73,NW,309,1.0,3.0,94,0.00,,CLR,0.00,0.00,VWS V14.01,2013-05-04 10:01:00,
2013-05-04 06:05:00,69.3,67.5,29.73,NW,309,0.0,0.0,94,0.00,,CLR,0.00,0.00,VWS V14.01,2013-05-04 10:05:00,
2013-05-04 06:06:00,69.2,67.4,29.73,NW,309,2.0,2.0,94,0.00,,CLR,0.00,0.00,VWS V14.01,2013-05-04 10:06:00,
2013-05-04 06:10:00,69.2,67.4,29.73,WNW,299,1.0,3.0,94,0.00,,CLR,0.00,0.00,VWS V14.01,2013-05-04 10:10:00,
2013-05-04 06:11:00,69.2,67.4,29.73,WNW,300,0.0,1.0,94,0.00,,CLR,0.00,0.00,VWS V14.01,2013-05-04 10:11:00,
2013-05-04 06:15:00,69.2,67.4,29.73,WNW,300,2.0,3.0,94,0.00,,CLR,0.00,0.00,VWS V14.01,2013-05-04 10:15:00,
2013-05-04 06:16:00,69.2,67.4,29.73,West,279,4.0,4.0,94,0.00,,CLR,0.00,0.00,VWS V14.01,2013-05-04 10:16:00,
2013-05-04 06:20:00,69.1,67.3,29.73,NW,309,2.0,4.0,94,0.00,,CLR,0.00,0.00,VWS V14.01,2013-05-04 10:20:00,
2013-05-04 06:21:00,69.1,67.3,29.74,NW,315,3.0,4.0,94,0.00,,CLR,0.00,0.00,VWS V14.01,2013-05-04 10:21:00,
2013-05-04 06:25:00,69.1,67.3,29.74,NW,307,3.0,3.0,94,0.00,,CLR,0.00,0.00,VWS V14.01,2013-05-04 10:25:00,
2013-05-04 06:26:00,69.1,67.3,29.74,NW,307,0.0,2.0,94,0.00,,CLR,0.00,0.00,VWS V14.01,2013-05-04 10:26:00,
2013-05-04 06:30:00,69.0,67.2,29.74,NW,307,1.0,3.0,94,0.00,,CLR,0.00,0.00,VWS V14.01,2013-05-04 10:30:00,
2013-05-04 06:31:00,69.0,67.2,29.74,NW,307,2.0,3.0,94,0.00,,CLR,0.00,0.00,VWS V14.01,2013-05-04 10:31:00,
2013-05-04 06:35:00,69.0,67.2,29.74,NW,307,1.0,2.0,94,0.00,,CLR,0.00,0.00,VWS V14.01,2013-05-04 10:35:00,
2013-05-04 06:36:00,69.0,67.2,29.74,NW,307,0.0,1.0,94,0.00,,CLR,0.00,0.00,VWS V14.01,2013-05-04 10:36:00,
2013-05-04 06:40:00,68.9,67.1,29.75,NW,307,1.0,2.0,94,0.00,,CLR,0.00,0.00,VWS V14.01,2013-05-04 10:40:00,
2013-05-04 06:41:00,68.9,67.1,29.75,NW,307,1.0,2.0,94,0.00,,CLR,0.00,0.00,VWS V14.01,2013-05-04 10:41:00,
2013-05-04 06:45:00,68.9,67.1,29.75,WNW,302,0.0,3.0,94,0.00,,CLR,0.00,5.00,VWS V14.01,2013-05-04 10:45:00,
2013-05-04 06:46:00,68.9,67.1,29.75,WNW,302,0.0,1.0,94,0.00,,CLR,0.00,5.00,VWS V14.01,2013-05-04 10:46:00,
2013-05-04 06:50:00,68.9,67.1,29.75,WNW,302,1.0,1.0,94,0.00,,CLR,0.00,7.00,VWS V14.01,2013-05-04 10:50:00,
2013-05-04 06:51:00,68.9,67.1,29.75,WNW,302,0.0,0.0,94,0.00,,CLR,0.00,9.00,VWS V14.01,2013-05-04 10:51:00,
2013-05-04 06:55:00,68.8,67.0,29.75,WNW,302,2.0,2.0,94,0.00,,CLR,0.00,11.00,VWS V14.01,2013-05-04 10:55:00,
2013-05-04 06:56:00,68.8,67.0,29.75,WNW,302,0.0,2.0,94,0.00,,CLR,0.00,12.00,VWS V14.01,2013-05-04 10:56:00,
2013-05-04 07:00:00,68.8,67.0,29.75,WNW,302,1.0,1.0,94,0.00,,CLR,0.00,14.00,VWS V14.01,2013-05-04 11:00:00,
2013-05-04 07:01:00,68.8,67.0,29.75,WNW,302,1.0,2.0,94,0.00,,CLR,0.00,14.00,VWS V14.01,2013-05-04 11:01:00,
2013-05-04 07:05:00,68.9,67.4,29.75,WNW,302,1.0,2.0,95,0.00,,CLR,0.00,18.00,VWS V14.01,2013-05-04 11:05:00,
2013-05-04 07:06:00,68.9,67.4,29.75,WNW,302,0.0,1.0,95,0.00,,CLR,0.00,18.00,VWS V14.01,2013-05-04 11:06:00,
2013-05-04 07:10:00,69.0,67.5,29.76,WNW,302,2.0,2.0,95,0.00,,CLR,0.00,19.00,VWS V14.01,2013-05-04 11:10:00,
2013-05-04 07:11:00,69.0,67.5,29.75,WNW,302,2.0,2.0,95,0.00,,CLR,0.00,21.00,VWS V14.01,2013-05-04 11:11:00,
2013-05-04 07:15:00,69.0,67.5,29.76,NW,310,3.0,3.0,95,0.00,,CLR,0.00,21.00,VWS V14.01,2013-05-04 11:15:00,
2013-05-04 07:16:00,69.1,67.6,29.76,NW,310,2.0,4.0,95,0.00,,CLR,0.00,23.00,VWS V14.01,2013-05-04 11:16:00,
2013-05-04 07:20:00,69.1,67.6,29.76,NW,310,3.0,3.0,95,0.00,,CLR,0.00,25.00,VWS V14.01,2013-05-04 11:20:00,
2013-05-04 07:21:00,69.2,67.7,29.76,NW,313,2.0,4.0,95,0.00,,CLR,0.00,26.00,VWS V14.01,2013-05-04 11:21:00,
2013-05-04 07:25:00,69.3,67.8,29.76,NW,313,1.0,2.0,95,0.00,,CLR,0.00,26.00,VWS V14.01,2013-05-04 11:25:00,
2013-05-04 07:26:00,69.3,67.8,29.76,NW,307,2.0,4.0,95,0.00,,CLR,0.00,28.00,VWS V14.01,2013-05-04 11:26:00,
2013-05-04 07:30:00,69.4,67.9,29.76,NW,307,2.0,2.0,95,0.00,,CLR,0.00,28.00,VWS V14.01,2013-05-04 11:30:00,
2013-05-04 07:31:00,69.5,68.0,29.76,NW,307,3.0,3.0,95,0.00,,CLR,0.00,28.00,VWS V14.01,2013-05-04 11:31:00,
2013-05-04 07:35:00,69.6,68.1,29.76,NW,313,2.0,3.0,95,0.00,,CLR,0.00,30.00,VWS V14.01,2013-05-04 11:35:00,
2013-05-04 07:36:00,69.7,68.2,29.76,NW,313,3.0,3.0,95,0.00,,CLR,0.00,30.00,VWS V14.01,2013-05-04 11:36:00,
2013-05-04 07:40:00,69.8,68.3,29.77,NW,313,2.0,3.0,95,0.00,,CLR,0.00,49.00,VWS V14.01,2013-05-04 11:40:00,
2013-05-04 07:41:00,69.8,68.3,29.77,NW,313,2.0,2.0,95,0.00,,CLR,0.00,53.00,VWS V14.01,2013-05-04 11:41:00,
2013-05-04 07:45:00,70.0,68.5,29.76,West,273,3.0,4.0,95,0.00,,CLR,0.00,111.00,VWS V14.01,2013-05-04 11:45:00,
2013-05-04 07:46:00,70.0,68.5,29.77,West,277,2.0,3.0,95,0.00,,CLR,0.00,70.00,VWS V14.01,2013-05-04 11:46:00,
2013-05-04 07:50:00,70.2,68.7,29.77,WNW,298,2.0,3.0,95,0.00,,CLR,0.00,148.00,VWS V14.01,2013-05-04 11:50:00,
2013-05-04 07:51:00,70.3,68.8,29.77,NW,315,2.0,4.0,95,0.00,,CLR,0.00,156.00,VWS V14.01,2013-05-04 11:51:00,
2013-05-04 07:55:00,70.5,68.7,29.77,NNW,329,3.0,4.0,94,0.00,,CLR,0.00,165.00,VWS V14.01,2013-05-04 11:55:00,
2013-05-04 07:56:00,70.6,68.8,29.77,NW,324,2.0,4.0,94,0.00,,CLR,0.00,171.00,VWS V14.01,2013-05-04 11:56:00,
2013-05-04 08:00:00,70.8,69.0,29.77,WNW,296,2.0,5.0,94,0.00,,CLR,0.00,185.00,VWS V14.01,2013-05-04 12:00:00,
2013-05-04 08:01:00,70.9,69.1,29.77,West,279,3.0,4.0,94,0.00,,CLR,0.00,160.00,VWS V14.01,2013-05-04 12:01:00,
2013-05-04 08:05:00,71.1,69.0,29.77,NW,318,1.0,4.0,93,0.00,,CLR,0.00,134.00,VWS V14.01,2013-05-04 12:05:00,
2013-05-04 08:06:00,71.2,69.1,29.77,WNW,297,4.0,5.0,93,0.00,,CLR,0.00,67.00,VWS V14.01,2013-05-04 12:06:00,
2013-05-04 08:10:00,71.4,69.3,29.77,NNW,330,4.0,5.0,93,0.00,,CLR,0.00,69.00,VWS V14.01,2013-05-04 12:10:00,
2013-05-04 08:11:00,71.6,69.5,29.77,NW,317,2.0,4.0,93,0.00,,CLR,0.00,227.00,VWS V14.01,2013-05-04 12:11:00,
2013-05-04 08:15:00,71.8,69.4,29.77,NNW,336,3.0,5.0,92,0.00,,CLR,0.00,98.00,VWS V14.01,2013-05-04 12:15:00,
2013-05-04 08:16:00,71.9,69.4,29.77,NNW,334,3.0,6.0,92,0.00,,CLR,0.00,121.00,VWS V14.01,2013-05-04 12:16:00,
2013-05-04 08:20:00,72.1,69.7,29.77,NNW,346,6.0,6.0,92,0.00,,CLR,0.00,51.00,VWS V14.01,2013-05-04 12:20:00,
2013-05-04 08:21:00,72.3,69.5,29.77,NW,326,5.0,7.0,91,0.00,,CLR,0.00,141.00,VWS V14.01,2013-05-04 12:21:00,
2013-05-04 08:25:00,72.5,69.7,29.77,WNW,298,1.0,4.0,91,0.00,,CLR,0.00,118.00,VWS V14.01,2013-05-04 12:25:00,
2013-05-04 08:26:00,72.7,69.9,29.77,NNW,332,2.0,6.0,91,0.00,,CLR,0.00,160.00,VWS V14.01,2013-05-04 12:26:00,
2013-05-04 08:30:00,72.9,69.8,29.77,NW,308,5.0,6.0,90,0.00,,CLR,0.00,77.00,VWS V14.01,2013-05-04 12:30:00,
2013-05-04 08:31:00,73.0,69.6,29.77,NW,306,2.0,8.0,89,0.00,,CLR,0.00,65.00,VWS V14.01,2013-05-04 12:31:00,
2013-05-04 08:35:00,73.0,69.6,29.77,WNW,300,3.0,6.0,89,0.00,,CLR,0.00,118.00,VWS V14.01,2013-05-04 12:35:00,
2013-05-04 08:37:00,73.2,69.8,29.77,NNW,347,4.0,7.0,89,0.00,,CLR,0.00,128.00,VWS V14.01,2013-05-04 12:37:00,
2013-05-04 08:40:00,73.3,69.9,29.77,NW,313,2.0,7.0,89,0.00,,CLR,0.00,62.00,VWS V14.01,2013-05-04 12:40:00,
2013-05-04 08:42:00,73.5,69.7,29.77,NW,325,3.0,7.0,88,0.00,,CLR,0.00,107.00,VWS V14.01,2013-05-04 12:42:00,
2013-05-04 08:45:00,73.6,69.8,29.77,NW,306,5.0,9.0,88,0.00,,CLR,0.00,135.00,VWS V14.01,2013-05-04 12:45:00,
2013-05-04 08:47:00,73.8,69.7,29.77,NW,318,2.0,8.0,87,0.00,,CLR,0.00,102.00,VWS V14.01,2013-05-04 12:47:00,
2013-05-04 08:50:00,73.9,69.8,29.77,WNW,302,5.0,5.0,87,0.00,,CLR,0.00,381.00,VWS V14.01,2013-05-04 12:50:00,
2013-05-04 08:52:00,74.0,69.9,29.77,WNW,302,5.0,5.0,87,0.00,,CLR,0.00,156.00,VWS V14.01,2013-05-04 12:52:00,
2013-05-04 08:55:00,74.2,70.4,29.77,WNW,302,1.0,9.0,88,0.00,,CLR,0.00,513.00,VWS V14.01,2013-05-04 12:55:00,
2013-05-04 08:57:00,74.5,70.4,29.77,WNW,294,5.0,6.0,87,0.00,,CLR,0.00,478.00,VWS V14.01,2013-05-04 12:57:00,
2013-05-04 09:00:00,74.7,70.2,29.77,West,267,4.0,7.0,86,0.00,,CLR,0.00,160.00,VWS V14.01,2013-05-04 13:00:00,
2013-05-04 09:02:00,74.7,70.2,29.77,West,270,5.0,11.0,86,0.00,,CLR,0.00,123.00,VWS V14.01,2013-05-04 13:02:00,
2013-05-04 09:04:00,74.7,69.9,29.77,WNW,302,5.0,9.0,85,0.00,,CLR,0.00,283.00,VWS V14.01,2013-05-04 13:04:00,
2013-05-04 09:05:00,74.7,69.9,29.77,WNW,302,7.0,10.0,85,0.00,,CLR,0.00,283.00,VWS V14.01,2013-05-04 13:05:00,
2013-05-04 09:09:00,74.7,69.6,29.77,WNW,290,5.0,9.0,84,0.00,,CLR,0.00,188.00,VWS V14.01,2013-05-04 13:09:00,
2013-05-04 09:10:00,74.7,69.6,29.77,WNW,300,4.0,9.0,84,0.00,,CLR,0.00,188.00,VWS V14.01,2013-05-04 13:10:00,
2013-05-04 09:14:00,74.7,69.9,29.77,WNW,291,3.0,8.0,85,0.00,,CLR,0.00,462.00,VWS V14.01,2013-05-04 13:14:00,
2013-05-04 09:15:00,74.7,69.9,29.77,WNW,299,6.0,8.0,85,0.00,,CLR,0.00,462.00,VWS V14.01,2013-05-04 13:15:00,
2013-05-04 09:19:00,74.9,69.7,29.77,NW,306,4.0,11.0,84,0.00,,CLR,0.00,113.00,VWS V14.01,2013-05-04 13:19:00,
2013-05-04 09:20:00,74.9,70.1,29.77,WNW,295,7.0,11.0,85,0.00,,CLR,0.00,113.00,VWS V14.01,2013-05-04 13:20:00,
2013-05-04 09:24:00,75.4,70.2,29.77,NNW,340,2.0,8.0,84,0.00,,CLR,0.00,591.00,VWS V14.01,2013-05-04 13:24:00,
2013-05-04 09:25:00,75.3,70.1,29.77,WNW,298,1.0,8.0,84,0.00,,CLR,0.00,591.00,VWS V14.01,2013-05-04 13:25:00,
2013-05-04 09:29:00,76.0,70.1,29.77,NW,309,9.0,10.0,82,0.00,,CLR,0.00,601.00,VWS V14.01,2013-05-04 13:29:00,
2013-05-04 09:30:00,76.0,70.1,29.77,West,268,10.0,10.0,82,0.00,,CLR,0.00,601.00,VWS V14.01,2013-05-04 13:30:00,
2013-05-04 09:34:00,76.5,70.6,29.77,NNW,331,8.0,10.0,82,0.00,,CLR,0.00,575.00,VWS V14.01,2013-05-04 13:34:00,
2013-05-04 09:35:00,76.5,70.6,29.77,WNW,303,9.0,10.0,82,0.00,,CLR,0.00,575.00,VWS V14.01,2013-05-04 13:35:00,
2013-05-04 09:39:00,77.2,70.2,29.77,NW,309,4.0,8.0,79,0.00,,CLR,0.00,610.00,VWS V14.01,2013-05-04 13:39:00,
2013-05-04 09:40:00,77.2,70.2,29.77,NW,314,5.0,8.0,79,0.00,,CLR,0.00,613.00,VWS V14.01,2013-05-04 13:40:00,
2013-05-04 09:44:00,78.0,71.0,29.77,NW,322,6.0,10.0,79,0.00,,CLR,0.00,596.00,VWS V14.01,2013-05-04 13:44:00,
2013-05-04 09:45:00,78.0,71.0,29.77,NW,323,7.0,10.0,79,0.00,,CLR,0.00,596.00,VWS V14.01,2013-05-04 13:45:00,
2013-05-04 09:49:00,78.6,70.4,29.77,NW,312,8.0,10.0,76,0.00,,BKN021,0.00,548.00,VWS V14.01,2013-05-04 13:49:00,
2013-05-04 09:50:00,78.6,70.8,29.77,WNW,292,9.0,10.0,77,0.00,,CLR,0.00,548.00,VWS V14.01,2013-05-04 13:50:00,
2013-05-04 09:54:00,78.8,70.6,29.77,NW,310,9.0,9.0,76,0.00,,BKN021,0.00,645.00,VWS V14.01,2013-05-04 13:54:00,
2013-05-04 09:55:00,78.8,70.6,29.77,NW,317,4.0,9.0,76,0.00,,CLR,0.00,645.00,VWS V14.01,2013-05-04 13:55:00,
2013-05-04 09:59:00,79.1,71.3,29.77,NNW,331,8.0,9.0,77,0.00,,BKN021,0.00,671.00,VWS V14.01,2013-05-04 13:59:00,
2013-05-04 10:00:00,79.1,71.3,29.77,NNW,331,6.0,7.0,77,0.00,,CLR,0.00,671.00,VWS V14.01,2013-05-04 14:00:00,
2013-05-04 10:04:00,79.6,70.2,29.77,NNW,338,7.0,11.0,73,0.00,,BKN021,0.00,747.00,VWS V14.01,2013-05-04 14:04:00,
2013-05-04 10:05:00,79.6,70.2,29.77,NW,319,3.0,11.0,73,0.00,,CLR,0.00,747.00,VWS V14.01,2013-05-04 14:05:00,
2013-05-04 10:09:00,79.4,70.4,29.78,West,270,7.0,9.0,74,0.00,,BKN021,0.00,239.00,VWS V14.01,2013-05-04 14:09:00,
2013-05-04 10:10:00,79.5,70.5,29.78,WNW,298,7.0,9.0,74,0.00,,CLR,0.00,239.00,VWS V14.01,2013-05-04 14:10:00,
2013-05-04 10:14:00,79.5,70.5,29.78,NW,313,7.0,11.0,74,0.00,,BKN021,0.00,758.00,VWS V14.01,2013-05-04 14:14:00,
2013-05-04 10:15:00,79.5,70.5,29.78,NW,306,3.0,11.0,74,0.00,,CLR,0.00,758.00,VWS V14.01,2013-05-04 14:15:00,
2013-05-04 10:19:00,80.3,70.1,29.78,NNW,330,9.0,13.0,71,0.00,,BKN021,0.00,729.00,VWS V14.01,2013-05-04 14:19:00,
2013-05-04 10:20:00,80.2,69.9,29.78,NNW,337,9.0,13.0,71,0.00,,CLR,0.00,729.00,VWS V14.01,2013-05-04 14:20:00,
2013-05-04 10:24:00,80.7,70.4,29.78,WNW,299,4.0,9.0,71,0.00,,BKN021,0.00,835.00,VWS V14.01,2013-05-04 14:24:00,
2013-05-04 10:25:00,80.7,70.4,29.78,West,273,7.0,9.0,71,0.00,,CLR,0.00,835.00,VWS V14.01,2013-05-04 14:25:00,
2013-05-04 10:29:00,80.9,70.6,29.78,WNW,301,10.0,10.0,71,0.00,,BKN021,0.00,207.00,VWS V14.01,2013-05-04 14:29:00,
2013-05-04 10:30:00,80.9,70.6,29.78,WNW,297,7.0,9.0,71,0.00,,CLR,0.00,207.00,VWS V14.01,2013-05-04 14:30:00,
2013-05-04 10:34:00,80.3,69.6,29.78,West,274,2.0,7.0,70,0.00,,BKN021,0.00,888.00,VWS V14.01,2013-05-04 14:34:00,
2013-05-04 10:35:00,80.3,69.6,29.78,West,274,3.0,7.0,70,0.00,,CLR,0.00,888.00,VWS V14.01,2013-05-04 14:35:00,
2013-05-04 10:39:00,81.2,70.9,29.78,NW,319,2.0,7.0,71,0.00,,BKN021,0.00,888.00,VWS V14.01,2013-05-04 14:39:00,
2013-05-04 10:40:00,81.1,70.8,29.78,NW,319,2.0,7.0,71,0.00,,CLR,0.00,888.00,VWS V14.01,2013-05-04 14:40:00,
2013-05-04 10:44:00,80.9,69.8,29.78,WNW,296,5.0,9.0,69,0.00,,BKN021,0.00,977.00,VWS V14.01,2013-05-04 14:44:00,
2013-05-04 10:45:00,80.8,69.7,29.78,NW,314,5.0,9.0,69,0.00,,CLR,0.00,977.00,VWS V14.01,2013-05-04 14:45:00,
2013-05-04 10:49:00,80.3,69.6,29.78,NW,325,4.0,8.0,70,0.00,,BKN021,0.00,265.00,VWS V14.01,2013-05-04 14:49:00,
2013-05-04 10:50:00,80.3,69.6,29.78,NW,308,4.0,8.0,70,0.00,,CLR,0.00,265.00,VWS V14.01,2013-05-04 14:50:00,
2013-05-04 10:54:00,80.9,69.8,29.78,WNW,303,12.0,12.0,69,0.00,,SCT020,0.00,213.00,VWS V14.01,2013-05-04 14:54:00,
2013-05-04 10:55:00,80.8,69.7,29.78,WNW,299,4.0,10.0,69,0.00,,CLR,0.00,213.00,VWS V14.01,2013-05-04 14:55:00,
2013-05-04 10:59:00,81.6,70.9,29.78,NW,313,6.0,11.0,70,0.00,,SCT020,0.00,1004.00,VWS V14.01,2013-05-04 14:59:00,
2013-05-04 11:00:00,81.6,70.9,29.78,WNW,296,7.0,11.0,70,0.00,,CLR,0.00,1004.00,VWS V14.01,2013-05-04 15:00:00,
2013-05-04 11:04:00,82.2,70.6,29.78,WNW,289,6.0,9.0,68,0.00,,SCT020,0.00,225.00,VWS V14.01,2013-05-04 15:04:00,
2013-05-04 11:05:00,82.2,70.6,29.78,NW,314,8.0,9.0,68,0.00,,CLR,0.00,225.00,VWS V14.01,2013-05-04 15:05:00,
2013-05-04 11:09:00,82.0,69.5,29.78,West,275,3.0,8.0,66,0.00,,SCT020,0.00,221.00,VWS V14.01,2013-05-04 15:09:00,
2013-05-04 11:10:00,82.0,69.5,29.78,West,274,3.0,8.0,66,0.00,,CLR,0.00,221.00,VWS V14.01,2013-05-04 15:10:00,
2013-05-04 11:14:00,82.8,70.7,29.78,West,268,5.0,10.0,67,0.00,,SCT020,0.00,1042.00,VWS V14.01,2013-05-04 15:14:00,
2013-05-04 11:15:00,82.7,70.6,29.78,West,269,6.0,10.0,67,0.00,,CLR,0.00,1042.00,VWS V14.01,2013-05-04 15:15:00,
2013-05-04 11:19:00,83.5,70.5,29.78,NNW,338,6.0,8.0,65,0.00,,SCT020,0.00,1039.00,VWS V14.01,2013-05-04 15:19:00,
2013-05-04 11:20:00,83.5,70.5,29.78,WNW,303,3.0,14.0,65,0.00,,CLR,0.00,1056.00,VWS V14.01,2013-05-04 15:20:00,
2013-05-04 11:24:00,84.1,70.6,29.78,WSW,257,5.0,11.0,64,0.00,,SCT020,0.00,1011.00,VWS V14.01,2013-05-04 15:24:00,
2013-05-04 11:25:00,84.1,70.6,29.78,West,265,7.0,11.0,64,0.00,,CLR,0.00,1011.00,VWS V14.01,2013-05-04 15:25:00,
2013-05-04 11:29:00,83.2,70.2,29.78,WNW,299,4.0,10.0,65,0.00,,SCT020,0.00,264.00,VWS V14.01,2013-05-04 15:29:00,
2013-05-04 11:30:00,83.3,69.9,29.78,WNW,282,5.0,10.0,64,0.00,,CLR,0.00,264.00,VWS V14.01,2013-05-04 15:30:00,
2013-05-04 11:34:00,83.4,70.9,29.78,West,273,5.0,7.0,66,0.00,,SCT020,0.00,988.00,VWS V14.01,2013-05-04 15:34:00,
2013-05-04 11:35:00,83.4,70.9,29.78,West,278,4.0,7.0,66,0.00,,CLR,0.00,988.00,VWS V14.01,2013-05-04 15:35:00,
2013-05-04 11:39:00,83.6,69.2,29.78,WNW,298,4.0,9.0,62,0.00,,SCT020,0.00,236.00,VWS V14.01,2013-05-04 15:39:00,
2013-05-04 11:40:00,83.6,69.2,29.78,WNW,298,4.0,9.0,62,0.00,,CLR,0.00,236.00,VWS V14.01,2013-05-04 15:40:00,
2013-05-04 11:44:00,82.5,69.1,29.78,West,263,5.0,10.0,64,0.00,,BKN036,0.00,258.00,VWS V14.01,2013-05-04 15:44:00,
2013-05-04 11:45:00,82.5,69.1,29.78,WNW,292,7.0,11.0,64,0.00,,CLR,0.00,258.00,VWS V14.01,2013-05-04 15:45:00,
2013-05-04 11:49:00,82.9,68.6,29.78,WSW,255,10.0,10.0,62,0.00,,BKN036,0.00,1090.00,VWS V14.01,2013-05-04 15:49:00,
2013-05-04 11:50:00,82.9,68.6,29.78,WSW,255,10.0,10.0,62,0.00,,CLR,0.00,1065.00,VWS V14.01,2013-05-04 15:50:00,
2013-05-04 11:54:00,83.3,68.5,29.78,NW,326,6.0,14.0,61,0.00,,BKN036,0.00,248.00,VWS V14.01,2013-05-04 15:54:00,
2013-05-04 11:55:00,83.3,68.5,29.78,NW,319,7.0,14.0,61,0.00,,CLR,0.00,248.00,VWS V14.01,2013-05-04 15:55:00,
2013-05-04 11:59:00,83.1,68.7,29.78,NW,322,8.0,9.0,62,0.00,,BKN036,0.00,243.00,VWS V14.01,2013-05-04 15:59:00,
2013-05-04 12:00:00,83.1,68.7,29.78,NW,311,6.0,9.0,62,0.00,,CLR,0.00,243.00,VWS V14.01,2013-05-04 16:00:00,
2013-05-04 12:04:00,83.0,68.7,29.78,WNW,302,7.0,9.0,62,0.00,,BKN048,0.00,441.00,VWS V14.01,2013-05-04 16:04:00,
2013-05-04 12:05:00,83.0,68.7,29.78,WNW,302,7.0,9.0,62,0.00,,CLR,0.00,441.00,VWS V14.01,2013-05-04 16:05:00,
2013-05-04 12:09:00,82.9,69.0,29.78,West,259,7.0,11.0,63,0.00,,BKN048,0.00,294.00,VWS V14.01,2013-05-04 16:09:00,
2013-05-04 12:10:00,82.9,69.0,29.78,West,259,7.0,11.0,63,0.00,,CLR,0.00,294.00,VWS V14.01,2013-05-04 16:10:00,
2013-05-04 12:14:00,82.5,68.6,29.77,NW,310,9.0,11.0,63,0.00,,BKN048,0.00,1018.00,VWS V14.01,2013-05-04 16:14:00,
2013-05-04 12:15:00,82.5,68.6,29.77,NW,304,8.0,11.0,63,0.00,,CLR,0.00,1018.00,VWS V14.01,2013-05-04 16:15:00,
2013-05-04 12:19:00,83.6,68.7,29.77,WNW,282,9.0,9.0,61,0.00,,BKN048,0.00,1067.00,VWS V14.01,2013-05-04 16:19:00,
2013-05-04 12:20:00,83.6,68.7,29.77,WNW,282,9.0,9.0,61,0.00,,CLR,0.00,1067.00,VWS V14.01,2013-05-04 16:20:00,
2013-05-04 12:24:00,84.4,69.0,29.77,WNW,286,11.0,11.0,60,0.00,,BKN048,0.00,257.00,VWS V14.01,2013-05-04 16:24:00,
2013-05-04 12:25:00,84.4,69.0,29.77,WNW,290,11.0,11.0,60,0.00,,CLR,0.00,257.00,VWS V14.01,2013-05-04 16:25:00,
2013-05-04 12:29:00,84.0,69.6,29.77,NW,318,3.0,10.0,62,0.00,,BKN048,0.00,1023.00,VWS V14.01,2013-05-04 16:29:00,
2013-05-04 12:30:00,83.9,69.5,29.77,NW,311,4.0,10.0,62,0.00,,CLR,0.00,1023.00,VWS V14.01,2013-05-04 16:30:00,
2013-05-04 12:34:00,84.8,68.9,29.77,WSW,253,7.0,9.0,59,0.00,,BKN048,0.00,1104.00,VWS V14.01,2013-05-04 16:34:00,
2013-05-04 12:35:00,84.8,68.9,29.77,WSW,253,7.0,9.0,59,0.00,,CLR,0.00,1104.00,VWS V14.01,2013-05-04 16:35:00,
2013-05-04 12:39:00,85.0,68.1,29.77,West,259,6.0,9.0,57,0.00,,BKN048,0.00,1030.00,VWS V14.01,2013-05-04 16:39:00,
2013-05-04 12:40:00,85.0,68.1,29.77,West,263,7.0,10.0,57,0.00,,CLR,0.00,1030.00,VWS V14.01,2013-05-04 16:40:00,
2013-05-04 12:44:00,85.5,69.1,29.77,WNW,282,7.0,8.0,58,0.00,,BKN048,0.00,1081.00,VWS V14.01,2013-05-04 16:44:00,
2013-05-04 12:45:00,85.5,69.1,29.77,WNW,287,7.0,8.0,58,0.00,,CLR,0.00,1081.00,VWS V14.01,2013-05-04 16:45:00,
2013-05-04 12:49:00,85.8,68.3,29.76,North,11,5.0,13.0,56,0.00,,BKN047,0.00,1027.00,VWS V14.01,2013-05-04 16:49:00,
2013-05-04 12:50:00,85.8,68.3,29.76,North,11,5.0,13.0,56,0.00,,CLR,0.00,1027.00,VWS V14.01,2013-05-04 16:50:00,
2013-05-04 12:54:00,86.0,68.5,29.76,West,280,5.0,11.0,56,0.00,,BKN047,0.00,1055.00,VWS V14.01,2013-05-04 16:54:00,
2013-05-04 12:55:00,86.0,68.5,29.76,West,280,6.0,11.0,56,0.00,,CLR,0.00,1055.00,VWS V14.01,2013-05-04 16:55:00,
2013-05-04 12:59:00,86.7,68.6,29.76,WSW,250,5.0,10.0,55,0.00,,BKN047,0.00,1132.00,VWS V14.01,2013-05-04 16:59:00,
2013-05-04 13:00:00,86.7,68.6,29.76,WSW,250,5.0,10.0,55,0.00,,CLR,0.00,1132.00,VWS V14.01,2013-05-04 17:00:00,
2013-05-04 13:04:00,87.4,67.1,29.76,NW,309,5.0,11.0,51,0.00,,BKN047,0.00,1086.00,VWS V14.01,2013-05-04 17:04:00,
2013-05-04 13:05:00,87.4,67.1,29.76,NW,309,5.0,11.0,51,0.00,,CLR,0.00,1086.00,VWS V14.01,2013-05-04 17:05:00,
2013-05-04 13:09:00,87.0,68.9,29.75,WNW,284,6.0,9.0,55,0.00,,BKN047,0.00,1106.00,VWS V14.01,2013-05-04 17:09:00,
2013-05-04 13:10:00,87.0,68.9,29.75,WNW,284,6.0,9.0,55,0.00,,CLR,0.00,1106.00,VWS V14.01,2013-05-04 17:10:00,
2013-05-04 13:14:00,87.7,68.5,29.75,NW,324,4.0,13.0,53,0.00,,BKN047,0.00,1111.00,VWS V14.01,2013-05-04 17:14:00,
2013-05-04 13:15:00,87.7,68.5,29.75,NW,324,4.0,13.0,53,0.00,,CLR,0.00,1111.00,VWS V14.01,2013-05-04 17:15:00,
2013-05-04 13:19:00,87.4,67.6,29.75,West,278,12.0,12.0,52,0.00,,BKN047,0.00,1078.00,VWS V14.01,2013-05-04 17:19:00,
2013-05-04 13:20:00,87.4,67.6,29.75,West,278,12.0,12.0,52,0.00,,CLR,0.00,1078.00,VWS V14.01,2013-05-04 17:20:00,
2013-05-04 13:24:00,87.2,69.1,29.75,West,261,7.0,8.0,55,0.00,,BKN047,0.00,1085.00,VWS V14.01,2013-05-04 17:24:00,
2013-05-04 13:25:00,87.2,69.1,29.75,West,261,7.0,8.0,55,0.00,,CLR,0.00,1085.00,VWS V14.01,2013-05-04 17:25:00,
2013-05-04 13:29:00,87.7,67.9,29.75,West,271,4.0,8.0,52,0.00,,BKN047,0.00,1146.00,VWS V14.01,2013-05-04 17:29:00,
2013-05-04 13:30:00,87.7,67.9,29.75,West,271,4.0,8.0,52,0.00,,CLR,0.00,1146.00,VWS V14.01,2013-05-04 17:30:00,
2013-05-04 13:34:00,87.7,69.0,29.75,WNW,290,7.0,10.0,54,0.00,,BKN047,0.00,1146.00,VWS V14.01,2013-05-04 17:34:00,
2013-05-04 13:35:00,87.7,69.0,29.75,WNW,290,7.0,10.0,54,0.00,,CLR,0.00,1146.00,VWS V14.01,2013-05-04 17:35:00,
2013-05-04 13:39:00,87.9,68.7,29.75,WNW,285,7.0,7.0,53,0.00,,BKN047,0.00,436.00,VWS V14.01,2013-05-04 17:39:00,
2013-05-04 13:40:00,87.9,68.7,29.75,WNW,285,7.0,7.0,53,0.00,,CLR,0.00,436.00,VWS V14.01,2013-05-04 17:40:00,
2013-05-04 13:44:00,87.4,69.3,29.75,WNW,298,7.0,9.0,55,0.00,,CLR,0.00,329.00,VWS V14.01,2013-05-04 17:44:00,
2013-05-04 13:45:00,87.4,68.7,29.75,NNW,327,7.0,9.0,54,0.00,,CLR,0.00,329.00,VWS V14.01,2013-05-04 17:45:00,
2013-05-04 13:49:00,87.0,68.4,29.75,WNW,296,10.0,10.0,54,0.00,,CLR,0.00,1074.00,VWS V14.01,2013-05-04 17:49:00,
2013-05-04 13:50:00,87.0,68.4,29.75,WNW,296,10.0,10.0,54,0.00,,CLR,0.00,1074.00,VWS V14.01,2013-05-04 17:50:00,
2013-05-04 13:54:00,87.8,68.6,29.75,NW,315,8.0,11.0,53,0.00,,CLR,0.00,1081.00,VWS V14.01,2013-05-04 17:54:00,
2013-05-04 13:55:00,87.8,68.6,29.75,NNW,344,11.0,11.0,53,0.00,,CLR,0.00,1081.00,VWS V14.01,2013-05-04 17:55:00,
2013-05-04 13:59:00,87.9,68.7,29.75,WNW,302,6.0,6.0,53,0.00,,CLR,0.00,315.00,VWS V14.01,2013-05-04 17:59:00,
2013-05-04 14:00:00,87.9,68.7,29.75,NW,307,8.0,8.0,53,0.00,,CLR,0.00,315.00,VWS V14.01,2013-05-04 18:00:00,
2013-05-04 14:04:00,87.1,67.9,29.75,NW,306,9.0,14.0,53,0.00,,CLR,0.00,315.00,VWS V14.01,2013-05-04 18:04:00,
2013-05-04 14:05:00,87.1,67.9,29.75,NW,313,8.0,14.0,53,0.00,,CLR,0.00,315.00,VWS V14.01,2013-05-04 18:05:00,
2013-05-04 14:09:00,86.3,67.2,29.74,NW,317,9.0,10.0,53,0.00,,CLR,0.00,272.00,VWS V14.01,2013-05-04 18:09:00,
2013-05-04 14:10:00,86.3,67.2,29.75,NW,324,8.0,10.0,53,0.00,,CLR,0.00,272.00,VWS V14.01,2013-05-04 18:10:00,
2013-05-04 14:14:00,86.6,66.9,29.74,NW,312,4.0,12.0,52,0.00,,CLR,0.00,250.00,VWS V14.01,2013-05-04 18:14:00,
2013-05-04 14:15:00,86.5,66.8,29.75,NW,319,4.0,12.0,52,0.00,,CLR,0.00,250.00,VWS V14.01,2013-05-04 18:15:00,
2013-05-04 14:19:00,87.0,68.4,29.75,WNW,290,7.0,10.0,54,0.00,,CLR,0.00,1088.00,VWS V14.01,2013-05-04 18:19:00,
2013-05-04 14:20:00,87.0,67.3,29.75,WNW,283,5.0,10.0,52,0.00,,CLR,0.00,1088.00,VWS V14.01,2013-05-04 18:20:00,
2013-05-04 14:24:00,86.7,68.6,29.74,WNW,295,5.0,9.0,55,0.00,,CLR,0.00,1090.00,VWS V14.01,2013-05-04 18:24:00,
2013-05-04 14:25:00,86.7,68.6,29.74,West,269,7.0,9.0,55,0.00,,CLR,0.00,1090.00,VWS V14.01,2013-05-04 18:25:00,
2013-05-04 14:29:00,87.9,69.2,29.74,NNW,327,8.0,12.0,54,0.00,,CLR,0.00,1020.00,VWS V14.01,2013-05-04 18:29:00,
2013-05-04 14:30:00,87.9,69.2,29.74,WNW,296,5.0,12.0,54,0.00,,CLR,0.00,1020.00,VWS V14.01,2013-05-04 18:30:00,
2013-05-04 14:34:00,87.9,67.5,29.74,WNW,303,12.0,16.0,51,0.00,,CLR,0.00,1046.00,VWS V14.01,2013-05-04 18:34:00,
2013-05-04 14:35:00,87.8,67.4,29.74,NW,326,10.0,16.0,51,0.00,,CLR,0.00,1046.00,VWS V14.01,2013-05-04 18:35:00,
2013-05-04 14:39:00,87.9,69.7,29.74,NW,319,5.0,9.0,55,0.00,,CLR,0.00,1016.00,VWS V14.01,2013-05-04 18:39:00,
2013-05-04 14:40:00,87.9,69.7,29.74,NW,307,4.0,8.0,55,0.00,,CLR,0.00,1011.00,VWS V14.01,2013-05-04 18:40:00,
2013-05-04 14:43:00,88.6,68.2,29.73,WNW,287,7.0,15.0,51,0.00,,FEW046,0.00,1013.00,VWS V14.01,2013-05-04 18:43:00,
2013-05-04 14:45:00,88.6,67.6,29.73,WNW,298,6.0,14.0,50,0.00,,CLR,0.00,1013.00,VWS V14.01,2013-05-04 18:45:00,
2013-05-04 14:49:00,88.4,68.6,29.73,West,281,8.0,13.0,52,0.00,,FEW046,0.00,991.00,VWS V14.01,2013-05-04 18:49:00,
2013-05-04 14:50:00,88.4,68.0,29.73,WNW,290,5.0,13.0,51,0.00,,CLR,0.00,991.00,VWS V14.01,2013-05-04 18:50:00,
2013-05-04 14:53:00,88.8,67.2,29.72,WNW,298,4.0,12.0,49,0.00,,FEW046,0.00,1037.00,VWS V14.01,2013-05-04 18:53:00,
2013-05-04 14:55:00,88.8,67.2,29.72,NW,306,6.0,12.0,49,0.00,,CLR,0.00,1037.00,VWS V14.01,2013-05-04 18:55:00,
2013-05-04 14:58:00,88.5,66.9,29.72,WNW,292,4.0,15.0,49,0.00,,FEW046,0.00,1037.00,VWS V14.01,2013-05-04 18:58:00,
2013-05-04 15:00:00,88.5,66.9,29.72,West,279,5.0,15.0,49,0.00,,CLR,0.00,1037.00,VWS V14.01,2013-05-04 19:00:00,
2013-05-04 15:03:00,88.6,68.2,29.72,WNW,285,11.0,13.0,51,0.00,,FEW046,0.00,889.00,VWS V14.01,2013-05-04 19:03:00,
2013-05-04 15:05:00,88.6,68.2,29.72,West,266,8.0,13.0,51,0.00,,CLR,0.00,889.00,VWS V14.01,2013-05-04 19:05:00,
2013-05-04 15:08:00,88.4,68.0,29.72,NW,309,7.0,9.0,51,0.00,,FEW046,0.00,1016.00,VWS V14.01,2013-05-04 19:08:00,
2013-05-04 15:10:00,88.4,68.0,29.72,West,279,4.0,9.0,51,0.00,,CLR,0.00,946.00,VWS V14.01,2013-05-04 19:10:00,
2013-05-04 15:13:00,88.5,68.1,29.72,NNW,336,6.0,14.0,51,0.00,,FEW046,0.00,977.00,VWS V14.01,2013-05-04 19:13:00,
2013-05-04 15:15:00,88.5,68.1,29.72,NNW,332,8.0,11.0,51,0.00,,CLR,0.00,965.00,VWS V14.01,2013-05-04 19:15:00,
2013-05-04 15:18:00,88.7,68.3,29.71,WNW,294,3.0,10.0,51,0.00,,FEW046,0.00,969.00,VWS V14.01,2013-05-04 19:18:00,
2013-05-04 15:20:00,88.8,68.4,29.71,NW,309,7.0,11.0,51,0.00,,CLR,0.00,969.00,VWS V14.01,2013-05-04 19:20:00,
2013-05-04 15:23:00,88.6,67.0,29.71,West,271,2.0,11.0,49,0.00,,FEW046,0.00,974.00,VWS V14.01,2013-05-04 19:23:00,
2013-05-04 15:25:00,88.6,67.6,29.71,West,271,2.0,11.0,50,0.00,,CLR,0.00,974.00,VWS V14.01,2013-05-04 19:25:00,
2013-05-04 15:28:00,89.0,68.0,29.71,West,277,10.0,16.0,50,0.00,,FEW046,0.00,930.00,VWS V14.01,2013-05-04 19:28:00,
2013-05-04 15:30:00,89.1,68.1,29.71,West,279,6.0,16.0,50,0.00,,CLR,0.00,930.00,VWS V14.01,2013-05-04 19:30:00,
2013-05-04 15:33:00,89.5,68.4,29.71,NW,323,8.0,11.0,50,0.00,,FEW046,0.00,617.00,VWS V14.01,2013-05-04 19:33:00,
2013-05-04 15:35:00,89.5,68.4,29.71,NNW,330,6.0,11.0,50,0.00,,CLR,0.00,617.00,VWS V14.01,2013-05-04 19:35:00,
2013-05-04 15:38:00,88.4,66.2,29.71,NW,313,6.0,12.0,48,0.00,,FEW046,0.00,229.00,VWS V14.01,2013-05-04 19:38:00,
2013-05-04 15:40:00,88.3,66.1,29.71,NW,325,7.0,12.0,48,0.00,,CLR,0.00,229.00,VWS V14.01,2013-05-04 19:40:00,
2013-05-04 15:43:00,87.3,66.4,29.71,NW,323,7.0,8.0,50,0.00,,FEW060,0.00,204.00,VWS V14.01,2013-05-04 19:43:00,
2013-05-04 15:45:00,87.2,66.3,29.71,NW,306,6.0,8.0,50,0.00,,CLR,0.00,209.00,VWS V14.01,2013-05-04 19:45:00,
2013-05-04 15:48:00,86.8,65.9,29.71,NW,306,5.0,11.0,50,0.00,,FEW060,0.00,378.00,VWS V14.01,2013-05-04 19:48:00,
2013-05-04 15:50:00,86.8,65.9,29.71,WNW,299,4.0,11.0,50,0.00,,CLR,0.00,378.00,VWS V14.01,2013-05-04 19:50:00,
2013-05-04 15:53:00,87.6,66.7,29.71,West,281,3.0,6.0,50,0.00,,FEW060,0.00,872.00,VWS V14.01,2013-05-04 19:53:00,
2013-05-04 15:55:00,87.7,66.8,29.71,West,281,1.0,6.0,50,0.00,,CLR,0.00,872.00,VWS V14.01,2013-05-04 19:55:00,
2013-05-04 15:58:00,88.6,67.6,29.71,NW,304,8.0,11.0,50,0.00,,FEW060,0.00,884.00,VWS V14.01,2013-05-04 19:58:00,
2013-05-04 16:00:00,88.7,67.7,29.71,West,265,7.0,11.0,50,0.00,,CLR,0.00,884.00,VWS V14.01,2013-05-04 20:00:00,
2013-05-04 16:03:00,88.2,67.2,29.71,NW,309,3.0,12.0,50,0.00,,FEW060,0.00,884.00,VWS V14.01,2013-05-04 20:03:00,
2013-05-04 16:05:00,88.2,67.2,29.71,West,270,5.0,12.0,50,0.00,,CLR,0.00,884.00,VWS V14.01,2013-05-04 20:05:00,
2013-05-04 16:08:00,87.9,67.5,29.71,NW,304,6.0,10.0,51,0.00,,FEW060,0.00,947.00,VWS V14.01,2013-05-04 20:08:00,
2013-05-04 16:10:00,87.9,67.5,29.71,WNW,297,3.0,10.0,51,0.00,,CLR,0.00,947.00,VWS V14.01,2013-05-04 20:10:00,
2013-05-04 16:13:00,88.8,67.2,29.71,NW,304,9.0,17.0,49,0.00,,FEW060,0.00,826.00,VWS V14.01,2013-05-04 20:13:00,
2013-05-04 16:15:00,88.9,67.3,29.71,NW,306,9.0,17.0,49,0.00,,CLR,0.00,826.00,VWS V14.01,2013-05-04 20:15:00,
2013-05-04 16:18:00,89.1,67.5,29.71,NNW,340,5.0,11.0,49,0.00,,FEW060,0.00,837.00,VWS V14.01,2013-05-04 20:18:00,
2013-05-04 16:20:00,89.1,67.5,29.71,WNW,289,3.0,11.0,49,0.00,,CLR,0.00,837.00,VWS V14.01,2013-05-04 20:20:00,
2013-05-04 16:23:00,89.0,66.8,29.71,WNW,292,3.0,11.0,48,0.00,,FEW060,0.00,223.00,VWS V14.01,2013-05-04 20:23:00,
2013-05-04 16:25:00,89.0,66.8,29.71,NW,311,9.0,11.0,48,0.00,,CLR,0.00,223.00,VWS V14.01,2013-05-04 20:25:00,
2013-05-04 16:28:00,88.2,66.7,29.71,WNW,298,9.0,11.0,49,0.00,,FEW060,0.00,339.00,VWS V14.01,2013-05-04 20:28:00,
2013-05-04 16:30:00,88.2,66.6,29.71,WNW,291,7.0,11.0,49,0.00,,CLR,0.00,339.00,VWS V14.01,2013-05-04 20:30:00,
2013-05-04 16:33:00,88.4,66.8,29.71,North,355,9.0,13.0,49,0.00,,FEW060,0.00,789.00,VWS V14.01,2013-05-04 20:33:00,
2013-05-04 16:35:00,88.4,66.8,29.71,West,281,9.0,13.0,49,0.00,,CLR,0.00,789.00,VWS V14.01,2013-05-04 20:35:00,
2013-05-04 16:38:00,88.4,67.4,29.71,WNW,299,5.0,11.0,50,0.00,,CLR,0.00,176.00,VWS V14.01,2013-05-04 20:38:00,
2013-05-04 16:40:00,88.4,67.4,29.71,West,259,3.0,11.0,50,0.00,,CLR,0.00,176.00,VWS V14.01,2013-05-04 20:40:00,
2013-05-04 16:43:00,88.2,67.2,29.71,NW,315,4.0,14.0,50,0.00,,CLR,0.00,789.00,VWS V14.01,2013-05-04 20:43:00,
2013-05-04 16:45:00,88.2,67.2,29.71,WSW,258,5.0,13.0,50,0.00,,CLR,0.00,789.00,VWS V14.01,2013-05-04 20:45:00,
2013-05-04 16:48:00,88.4,66.8,29.71,NW,305,14.0,14.0,49,0.00,,CLR,0.00,214.00,VWS V14.01,2013-05-04 20:48:00,
2013-05-04 16:50:00,88.4,66.8,29.71,WNW,292,7.0,14.0,49,0.00,,CLR,0.00,214.00,VWS V14.01,2013-05-04 20:50:00,
2013-05-04 16:53:00,88.3,67.9,29.71,WNW,293,12.0,15.0,51,0.00,,CLR,0.00,729.00,VWS V14.01,2013-05-04 20:53:00,
2013-05-04 16:55:00,88.4,68.0,29.71,WNW,296,6.0,15.0,51,0.00,,CLR,0.00,717.00,VWS V14.01,2013-05-04 20:55:00,
2013-05-04 16:58:00,88.8,68.4,29.71,NW,317,9.0,10.0,51,0.00,,CLR,0.00,708.00,VWS V14.01,2013-05-04 20:58:00,
2013-05-04 17:00:00,88.8,68.4,29.71,WNW,296,5.0,10.0,51,0.00,,CLR,0.00,708.00,VWS V14.01,2013-05-04 21:00:00,
2013-05-04 17:03:00,89.3,67.7,29.71,WNW,296,9.0,10.0,49,0.00,,CLR,0.00,700.00,VWS V14.01,2013-05-04 21:03:00,
2013-05-04 17:05:00,89.2,67.0,29.71,WNW,294,4.0,10.0,48,0.00,,CLR,0.00,700.00,VWS V14.01,2013-05-04 21:05:00,
2013-05-04 17:08:00,88.7,67.1,29.71,WNW,297,8.0,15.0,49,0.00,,CLR,0.00,624.00,VWS V14.01,2013-05-04 21:08:00,
2013-05-04 17:10:00,88.7,67.1,29.71,WNW,299,9.0,15.0,49,0.00,,CLR,0.00,624.00,VWS V14.01,2013-05-04 21:10:00,
2013-05-04 17:13:00,88.4,68.0,29.71,NW,307,4.0,9.0,51,0.00,,CLR,0.00,592.00,VWS V14.01,2013-05-04 21:13:00,
2013-05-04 17:15:00,88.3,67.9,29.71,NW,319,6.0,9.0,51,0.00,,CLR,0.00,592.00,VWS V14.01,2013-05-04 21:15:00,
2013-05-04 17:18:00,88.0,66.5,29.71,NNW,346,6.0,15.0,49,0.00,,CLR,0.00,578.00,VWS V14.01,2013-05-04 21:18:00,
2013-05-04 17:20:00,88.0,66.5,29.71,NNW,331,11.0,15.0,49,0.00,,CLR,0.00,578.00,VWS V14.01,2013-05-04 21:20:00,
2013-05-04 17:23:00,87.3,67.5,29.71,NNW,329,10.0,11.0,52,0.00,,CLR,0.00,571.00,VWS V14.01,2013-05-04 21:23:00,
2013-05-04 17:25:00,87.3,67.5,29.71,NW,313,5.0,11.0,52,0.00,,CLR,0.00,580.00,VWS V14.01,2013-05-04 21:25:00,
2013-05-04 17:28:00,87.3,67.0,29.71,WNW,290,15.0,15.0,51,0.00,,CLR,0.00,114.00,VWS V14.01,2013-05-04 21:28:00,
2013-05-04 17:30:00,87.3,67.0,29.71,WNW,299,11.0,15.0,51,0.00,,CLR,0.00,111.00,VWS V14.01,2013-05-04 21:30:00,
2013-05-04 17:33:00,86.6,66.3,29.71,NNW,336,9.0,14.0,51,0.00,,CLR,0.00,102.00,VWS V14.01,2013-05-04 21:33:00,
2013-05-04 17:35:00,86.5,66.2,29.71,NW,315,6.0,14.0,51,0.00,,CLR,0.00,102.00,VWS V14.01,2013-05-04 21:35:00,
2013-05-04 17:38:00,86.8,66.5,29.72,NW,322,6.0,13.0,51,0.00,,CLR,0.00,494.00,VWS V14.01,2013-05-04 21:38:00,
2013-05-04 17:40:00,86.8,66.5,29.72,West,281,5.0,13.0,51,0.00,,CLR,0.00,494.00,VWS V14.01,2013-05-04 21:40:00,
2013-05-04 17:43:00,87.4,67.1,29.72,WNW,298,7.0,9.0,51,0.00,,BKN055,0.00,475.00,VWS V14.01,2013-05-04 21:43:00,
2013-05-04 17:45:00,87.4,67.1,29.72,NW,304,10.0,10.0,51,0.00,,CLR,0.00,475.00,VWS V14.01,2013-05-04 21:45:00,
2013-05-04 17:48:00,86.8,66.5,29.72,NW,309,9.0,15.0,51,0.00,,BKN055,0.00,141.00,VWS V14.01,2013-05-04 21:48:00,
2013-05-04 17:50:00,86.8,66.5,29.72,WNW,299,11.0,15.0,51,0.00,,CLR,0.00,141.00,VWS V14.01,2013-05-04 21:50:00,
2013-05-04 17:53:00,86.4,66.7,29.72,WNW,299,11.0,13.0,52,0.00,,BKN055,0.00,462.00,VWS V14.01,2013-05-04 21:53:00,
2013-05-04 17:55:00,86.4,66.7,29.72,West,278,6.0,13.0,52,0.00,,CLR,0.00,462.00,VWS V14.01,2013-05-04 21:55:00,
2013-05-04 17:58:00,86.2,66.5,29.72,WNW,298,6.0,10.0,52,0.00,,BKN055,0.00,438.00,VWS V14.01,2013-05-04 21:58:00,
2013-05-04 18:00:00,86.2,66.5,29.72,NW,313,9.0,11.0,52,0.00,,CLR,0.00,438.00,VWS V14.01,2013-05-04 22:00:00,
2013-05-04 18:03:00,85.8,66.7,29.72,WNW,298,11.0,12.0,53,0.00,,BKN055,0.00,404.00,VWS V14.01,2013-05-04 22:03:00,
2013-05-04 18:05:00,85.9,66.8,29.72,WNW,292,7.0,12.0,53,0.00,,CLR,0.00,404.00,VWS V14.01,2013-05-04 22:05:00,
2013-05-04 18:08:00,85.6,66.0,29.72,WNW,292,5.0,11.0,52,0.00,,BKN055,0.00,376.00,VWS V14.01,2013-05-04 22:08:00,
2013-05-04 18:10:00,85.6,66.0,29.72,NNW,331,7.0,11.0,52,0.00,,CLR,0.00,376.00,VWS V14.01,2013-05-04 22:10:00,
2013-05-04 18:13:00,85.6,66.0,29.72,NW,309,10.0,12.0,52,0.00,,BKN055,0.00,353.00,VWS V14.01,2013-05-04 22:13:00,
2013-05-04 18:15:00,85.6,65.4,29.72,WNW,299,8.0,12.0,51,0.00,,CLR,0.00,353.00,VWS V14.01,2013-05-04 22:15:00,
2013-05-04 18:18:00,85.6,66.0,29.73,West,276,6.0,12.0,52,0.00,,BKN055,0.00,345.00,VWS V14.01,2013-05-04 22:18:00,
2013-05-04 18:20:00,85.6,66.0,29.73,West,277,3.0,12.0,52,0.00,,CLR,0.00,345.00,VWS V14.01,2013-05-04 22:20:00,
2013-05-04 18:23:00,85.7,65.5,29.72,WNW,286,6.0,11.0,51,0.00,,BKN055,0.00,309.00,VWS V14.01,2013-05-04 22:23:00,
2013-05-04 18:25:00,85.7,65.5,29.72,West,275,7.0,11.0,51,0.00,,CLR,0.00,309.00,VWS V14.01,2013-05-04 22:25:00,
2013-05-04 18:28:00,85.6,65.4,29.73,WNW,292,10.0,10.0,51,0.00,,BKN055,0.00,287.00,VWS V14.01,2013-05-04 22:28:00,
2013-05-04 18:30:00,85.6,65.4,29.73,North,351,6.0,10.0,51,0.00,,CLR,0.00,287.00,VWS V14.01,2013-05-04 22:30:00,
2013-05-04 18:33:00,85.2,65.6,29.73,WNW,288,9.0,13.0,52,0.00,,BKN055,0.00,267.00,VWS V14.01,2013-05-04 22:33:00,
2013-05-04 18:35:00,85.2,65.6,29.73,WNW,302,8.0,13.0,52,0.00,,CLR,0.00,262.00,VWS V14.01,2013-05-04 22:35:00,
2013-05-04 18:38:00,84.9,65.9,29.73,WSW,256,5.0,12.0,53,0.00,,BKN055,0.00,243.00,VWS V14.01,2013-05-04 22:38:00,
2013-05-04 18:40:00,84.9,65.9,29.73,NW,309,3.0,12.0,53,0.00,,CLR,0.00,243.00,VWS V14.01,2013-05-04 22:40:00,
2013-05-04 18:43:00,84.8,65.8,29.73,NNW,342,8.0,9.0,53,0.00,,FEW050,0.00,223.00,VWS V14.01,2013-05-04 22:43:00,
2013-05-04 18:45:00,84.8,66.3,29.73,NW,304,6.0,9.0,54,0.00,,CLR,0.00,223.00,VWS V14.01,2013-05-04 22:45:00,
2013-05-04 18:48:00,84.5,66.1,29.73,West,267,6.0,11.0,54,0.00,,FEW050,0.00,199.00,VWS V14.01,2013-05-04 22:48:00,
2013-05-04 18:50:00,84.5,66.1,29.73,WNW,290,6.0,11.0,54,0.00,,CLR,0.00,199.00,VWS V14.01,2013-05-04 22:50:00,
2013-05-04 18:53:00,84.2,66.8,29.73,NW,305,7.0,12.0,56,0.00,,FEW050,0.00,172.00,VWS V14.01,2013-05-04 22:53:00,
2013-05-04 18:55:00,84.2,66.8,29.73,WNW,292,8.0,12.0,56,0.00,,CLR,0.00,172.00,VWS V14.01,2013-05-04 22:55:00,
2013-05-04 18:58:00,84.0,66.6,29.73,NW,307,4.0,11.0,56,0.00,,FEW050,0.00,151.00,VWS V14.01,2013-05-04 22:58:00,
2013-05-04 19:00:00,83.9,66.5,29.73,WNW,299,4.0,11.0,56,0.00,,CLR,0.00,151.00,VWS V14.01,2013-05-04 23:00:00,
2013-05-04 19:03:00,83.7,67.4,29.73,WNW,303,8.0,12.0,58,0.00,,FEW050,0.00,128.00,VWS V14.01,2013-05-04 23:03:00,
2013-05-04 19:05:00,83.7,67.4,29.73,NW,306,6.0,12.0,58,0.00,,CLR,0.00,128.00,VWS V14.01,2013-05-04 23:05:00,
2013-05-04 19:08:00,83.4,67.1,29.73,NW,309,6.0,11.0,58,0.00,,FEW050,0.00,107.00,VWS V14.01,2013-05-04 23:08:00,
2013-05-04 19:10:00,83.4,67.1,29.73,WNW,298,3.0,11.0,58,0.00,,CLR,0.00,104.00,VWS V14.01,2013-05-04 23:10:00,
2013-05-04 19:13:00,83.1,66.8,29.73,NW,304,10.0,14.0,58,0.00,,FEW050,0.00,86.00,VWS V14.01,2013-05-04 23:13:00,
2013-05-04 19:15:00,83.1,66.8,29.73,NW,309,7.0,14.0,58,0.00,,CLR,0.00,86.00,VWS V14.01,2013-05-04 23:15:00,
2013-05-04 19:18:00,82.8,66.5,29.74,NW,311,10.0,11.0,58,0.00,,FEW050,0.00,69.00,VWS V14.01,2013-05-04 23:18:00,
2013-05-04 19:20:00,82.8,66.5,29.74,WNW,288,4.0,11.0,58,0.00,,CLR,0.00,69.00,VWS V14.01,2013-05-04 23:20:00,
2013-05-04 19:23:00,82.5,66.2,29.74,West,279,7.0,11.0,58,0.00,,FEW050,0.00,53.00,VWS V14.01,2013-05-04 23:23:00,
2013-05-04 19:25:00,82.5,66.7,29.74,NW,304,6.0,11.0,59,0.00,,CLR,0.00,53.00,VWS V14.01,2013-05-04 23:25:00,
2013-05-04 19:28:00,82.3,66.6,29.74,NW,304,12.0,12.0,59,0.00,,FEW050,0.00,37.00,VWS V14.01,2013-05-04 23:28:00,
2013-05-04 19:30:00,82.3,66.6,29.74,NW,305,7.0,12.0,59,0.00,,CLR,0.00,37.00,VWS V14.01,2013-05-04 23:30:00,
2013-05-04 19:33:00,82.1,66.8,29.75,NW,317,3.0,6.0,60,0.00,,FEW050,0.00,23.00,VWS V14.01,2013-05-04 23:33:00,
2013-05-04 19:35:00,82.1,66.8,29.75,WNW,302,3.0,6.0,60,0.00,,CLR,0.00,23.00,VWS V14.01,2013-05-04 23:35:00,
2013-05-04 19:38:00,81.9,67.1,29.75,NW,313,9.0,12.0,61,0.00,,FEW050,0.00,19.00,VWS V14.01,2013-05-04 23:38:00,
2013-05-04 19:40:00,81.9,67.1,29.75,WSW,257,7.0,11.0,61,0.00,,CLR,0.00,19.00,VWS V14.01,2013-05-04 23:40:00,
2013-05-04 19:43:00,81.7,67.4,29.75,WNW,295,4.0,11.0,62,0.00,,CLR,0.00,14.00,VWS V14.01,2013-05-04 23:43:00,
2013-05-04 19:45:00,81.6,67.3,29.75,NW,324,3.0,11.0,62,0.00,,CLR,0.00,12.00,VWS V14.01,2013-05-04 23:45:00,
2013-05-04 19:48:00,81.3,67.1,29.75,NW,304,5.0,14.0,62,0.00,,CLR,0.00,9.00,VWS V14.01,2013-05-04 23:48:00,
2013-05-04 19:50:00,81.3,67.1,29.75,WNW,290,7.0,14.0,62,0.00,,CLR,0.00,9.00,VWS V14.01,2013-05-04 23:50:00,
2013-05-04 19:53:00,81.0,67.2,29.75,WNW,297,4.0,12.0,63,0.00,,CLR,0.00,5.00,VWS V14.01,2013-05-04 23:53:00,
2013-05-04 19:55:00,81.0,67.2,29.75,WNW,298,11.0,12.0,63,0.00,,CLR,0.00,5.00,VWS V14.01,2013-05-04 23:55:00,
2013-05-04 19:58:00,80.7,66.9,29.75,NW,307,5.0,12.0,63,0.00,,CLR,0.00,0.00,VWS V14.01,2013-05-04 23:58:00,
2013-05-04 20:00:00,80.7,66.9,29.75,WNW,298,4.0,10.0,63,0.00,,CLR,0.00,0.00,VWS V14.01,2013-05-05 00:00:00,
2013-05-04 20:03:00,80.5,66.8,29.75,WNW,286,3.0,14.0,63,0.00,,CLR,0.00,0.00,VWS V14.01,2013-05-05 00:03:00,
2013-05-04 20:05:00,80.5,66.8,29.75,NW,309,7.0,9.0,63,0.00,,CLR,0.00,0.00,VWS V14.01,2013-05-05 00:05:00,
2013-05-04 20:08:00,80.2,66.9,29.75,NW,311,7.0,8.0,64,0.00,,CLR,0.00,0.00,VWS V14.01,2013-05-05 00:08:00,
2013-05-04 20:10:00,80.2,66.9,29.75,NW,313,11.0,15.0,64,0.00,,CLR,0.00,0.00,VWS V14.01,2013-05-05 00:10:00,
2013-05-04 20:13:00,79.9,66.7,29.76,NW,316,6.0,15.0,64,0.00,,CLR,0.00,0.00,VWS V14.01,2013-05-05 00:13:00,
2013-05-04 20:15:00,79.9,66.6,29.76,NW,306,11.0,15.0,64,0.00,,CLR,0.00,0.00,VWS V14.01,2013-05-05 00:15:00,
2013-05-04 20:18:00,79.7,66.5,29.76,WNW,285,7.0,9.0,64,0.00,,CLR,0.00,0.00,VWS V14.01,2013-05-05 00:18:00,
2013-05-04 20:20:00,79.6,66.4,29.76,WNW,299,6.0,8.0,64,0.00,,CLR,0.00,0.00,VWS V14.01,2013-05-05 00:20:00,
2013-05-04 20:23:00,79.4,66.6,29.76,NW,306,7.0,11.0,65,0.00,,CLR,0.00,0.00,VWS V14.01,2013-05-05 00:23:00,
2013-05-04 20:25:00,79.4,66.6,29.76,WNW,295,6.0,11.0,65,0.00,,CLR,0.00,0.00,VWS V14.01,2013-05-05 00:25:00,
2013-05-04 20:28:00,79.2,66.4,29.76,NW,304,2.0,5.0,65,0.00,,CLR,0.00,0.00,VWS V14.01,2013-05-05 00:28:00,
2013-05-04 20:30:00,79.2,66.4,29.76,NW,304,1.0,4.0,65,0.00,,CLR,0.00,0.00,VWS V14.01,2013-05-05 00:30:00,
2013-05-04 20:33:00,78.9,66.6,29.76,NW,312,5.0,10.0,66,0.00,,CLR,0.00,0.00,VWS V14.01,2013-05-05 00:33:00,
2013-05-04 20:35:00,78.9,66.6,29.76,WNW,287,6.0,10.0,66,0.00,,CLR,0.00,0.00,VWS V14.01,2013-05-05 00:35:00,
2013-05-04 20:38:00,78.7,66.4,29.76,WNW,290,3.0,10.0,66,0.00,,CLR,0.00,0.00,VWS V14.01,2013-05-05 00:38:00,
2013-05-04 20:40:00,78.7,66.4,29.76,WNW,294,6.0,9.0,66,0.00,,CLR,0.00,0.00,VWS V14.01,2013-05-05 00:40:00,
2013-05-04 20:43:00,78.6,66.3,29.76,WNW,292,5.0,8.0,66,0.00,,CLR,0.00,0.00,VWS V14.01,2013-05-05 00:43:00,
2013-05-04 20:45:00,78.6,66.3,29.76,WNW,298,6.0,8.0,66,0.00,,CLR,0.00,0.00,VWS V14.01,2013-05-05 00:45:00,
2013-05-04 20:48:00,78.4,66.6,29.77,WNW,300,4.0,6.0,67,0.00,,CLR,0.00,0.00,VWS V14.01,2013-05-05 00:48:00,
2013-05-04 20:50:00,78.4,66.6,29.77,WNW,294,3.0,6.0,67,0.00,,CLR,0.00,0.00,VWS V14.01,2013-05-05 00:50:00,
2013-05-04 20:53:00,78.3,66.4,29.77,WNW,302,5.0,10.0,67,0.00,,CLR,0.00,0.00,VWS V14.01,2013-05-05 00:53:00,
2013-05-04 20:55:00,78.3,66.4,29.77,WNW,301,7.0,10.0,67,0.00,,CLR,0.00,0.00,VWS V14.01,2013-05-05 00:55:00,
2013-05-04 20:58:00,78.1,66.7,29.77,NW,306,7.0,7.0,68,0.00,,CLR,0.00,0.00,VWS V14.01,2013-05-05 00:58:00,
2013-05-04 21:00:00,78.1,66.3,29.77,WNW,300,6.0,8.0,67,0.00,,CLR,0.00,0.00,VWS V14.01,2013-05-05 01:00:00,
2013-05-04 21:03:00,78.0,66.6,29.78,WNW,294,6.0,13.0,68,0.00,,CLR,0.00,0.00,VWS V14.01,2013-05-05 01:03:00,
2013-05-04 21:05:00,78.0,66.2,29.78,WNW,300,8.0,13.0,67,0.00,,CLR,0.00,0.00,VWS V14.01,2013-05-05 01:05:00,
2013-05-04 21:08:00,77.8,66.0,29.78,WNW,303,3.0,9.0,67,0.00,,CLR,0.00,0.00,VWS V14.01,2013-05-05 01:08:00,
2013-05-04 21:10:00,77.8,66.4,29.78,WNW,297,8.0,9.0,68,0.00,,CLR,0.00,0.00,VWS V14.01,2013-05-05 01:10:00,
2013-05-04 21:13:00,77.6,66.2,29.78,NW,320,3.0,5.0,68,0.00,,CLR,0.00,0.00,VWS V14.01,2013-05-05 01:13:00,
2013-05-04 21:15:00,77.6,66.2,29.78,WNW,299,3.0,6.0,68,0.00,,CLR,0.00,0.00,VWS V14.01,2013-05-05 01:15:00,
2013-05-04 21:18:00,77.4,66.0,29.78,NW,315,5.0,7.0,68,0.00,,CLR,0.00,0.00,VWS V14.01,2013-05-05 01:18:00,
2013-05-04 21:20:00,77.4,66.0,29.78,WNW,299,6.0,7.0,68,0.00,,CLR,0.00,0.00,VWS V14.01,2013-05-05 01:20:00,
2013-05-04 21:23:00,77.3,65.9,29.79,WNW,294,6.0,7.0,68,0.00,,CLR,0.00,0.00,VWS V14.01,2013-05-05 01:23:00,
2013-05-04 21:25:00,77.3,65.9,29.79,NW,308,7.0,9.0,68,0.00,,CLR,0.00,0.00,VWS V14.01,2013-05-05 01:25:00,
2013-05-04 21:28:00,77.1,66.2,29.79,WNW,298,3.0,4.0,69,0.00,,CLR,0.00,0.00,VWS V14.01,2013-05-05 01:28:00,
2013-05-04 21:30:00,77.1,66.2,29.79,WNW,298,3.0,4.0,69,0.00,,CLR,0.00,0.00,VWS V14.01,2013-05-05 01:30:00,
2013-05-04 21:33:00,77.0,66.1,29.79,WNW,297,4.0,7.0,69,0.00,,CLR,0.00,0.00,VWS V14.01,2013-05-05 01:33:00,
2013-05-04 21:35:00,77.0,66.1,29.79,WNW,293,3.0,6.0,69,0.00,,CLR,0.00,0.00,VWS V14.01,2013-05-05 01:35:00,
2013-05-04 21:38:00,76.8,66.3,29.79,West,265,2.0,8.0,70,0.00,,CLR,0.00,0.00,VWS V14.01,2013-05-05 01:38:00,
2013-05-04 21:40:00,76.8,66.3,29.79,WNW,285,3.0,8.0,70,0.00,,CLR,0.00,0.00,VWS V14.01,2013-05-05 01:40:00,
2013-05-04 21:43:00,76.7,66.2,29.79,WNW,303,3.0,8.0,70,0.00,,CLR,0.00,0.00,VWS V14.01,2013-05-05 01:43:00,
2013-05-04 21:45:00,76.6,66.1,29.79,WNW,302,4.0,8.0,70,0.00,,CLR,0.00,0.00,VWS V14.01,2013-05-05 01:45:00,
2013-05-04 21:48:00,76.6,66.1,29.79,NW,308,3.0,11.0,70,0.00,,CLR,0.00,0.00,VWS V14.01,2013-05-05 01:48:00,
2013-05-04 21:50:00,76.6,66.1,29.79,WNW,294,3.0,11.0,70,0.00,,CLR,0.00,0.00,VWS V14.01,2013-05-05 01:50:00,
2013-05-04 21:53:00,76.5,66.0,29.80,West,279,2.0,5.0,70,0.00,,CLR,0.00,0.00,VWS V14.01,2013-05-05 01:53:00,
2013-05-04 21:55:00,76.5,66.0,29.80,WNW,298,6.0,6.0,70,0.00,,CLR,0.00,0.00,VWS V14.01,2013-05-05 01:55:00,
2013-05-04 21:58:00,76.4,65.9,29.80,West,277,3.0,5.0,70,0.00,,CLR,0.00,0.00,VWS V14.01,2013-05-05 01:58:00,
2013-05-04 22:00:00,76.4,66.3,29.80,West,269,2.0,4.0,71,0.00,,CLR,0.00,0.00,VWS V14.01,2013-05-05 02:00:00,
2013-05-04 22:03:00,76.3,66.2,29.80,West,268,1.0,8.0,71,0.00,,CLR,0.00,0.00,VWS V14.01,2013-05-05 02:03:00,
2013-05-04 22:05:00,76.2,66.1,29.80,West,269,2.0,8.0,71,0.00,,CLR,0.00,0.00,VWS V14.01,2013-05-05 02:05:00,
2013-05-04 22:08:00,76.2,66.1,29.80,WNW,288,4.0,8.0,71,0.00,,CLR,0.00,0.00,VWS V14.01,2013-05-05 02:08:00,
2013-05-04 22:10:00,76.1,66.0,29.80,WNW,292,4.0,6.0,71,0.00,,CLR,0.00,0.00,VWS V14.01,2013-05-05 02:10:00,
2013-05-04 22:13:00,76.0,65.9,29.81,WNW,292,4.0,6.0,71,0.00,,CLR,0.00,0.00,VWS V14.01,2013-05-05 02:13:00,
2013-05-04 22:15:00,76.0,65.9,29.81,WNW,296,3.0,8.0,71,0.00,,CLR,0.00,0.00,VWS V14.01,2013-05-05 02:15:00,
2013-05-04 22:18:00,75.8,66.1,29.81,West,277,3.0,5.0,72,0.00,,CLR,0.00,0.00,VWS V14.01,2013-05-05 02:18:00,
2013-05-04 22:20:00,75.8,66.1,29.81,NW,315,4.0,6.0,72,0.00,,CLR,0.00,0.00,VWS V14.01,2013-05-05 02:20:00,
2013-05-04 22:23:00,75.7,66.0,29.81,NW,310,2.0,8.0,72,0.00,,CLR,0.00,0.00,VWS V14.01,2013-05-05 02:23:00,
2013-05-04 22:25:00,75.7,66.0,29.81,West,278,6.0,7.0,72,0.00,,CLR,0.00,0.00,VWS V14.01,2013-05-05 02:25:00,
2013-05-04 22:28:00,75.6,66.3,29.81,WNW,286,4.0,7.0,73,0.00,,CLR,0.00,0.00,VWS V14.01,2013-05-05 02:28:00,
2013-05-04 22:30:00,75.6,66.3,29.81,NW,304,8.0,8.0,73,0.00,,CLR,0.00,0.00,VWS V14.01,2013-05-05 02:30:00,
2013-05-04 22:33:00,75.5,66.2,29.82,WNW,288,3.0,10.0,73,0.00,,CLR,0.00,0.00,VWS V14.01,2013-05-05 02:33:00,
2013-05-04 22:35:00,75.4,66.2,29.82,WNW,288,1.0,10.0,73,0.00,,CLR,0.00,0.00,VWS V14.01,2013-05-05 02:35:00,
2013-05-04 22:38:00,75.2,66.3,29.82,West,276,3.0,7.0,74,0.00,,CLR,0.00,0.00,VWS V14.01,2013-05-05 02:38:00,
2013-05-04 22:40:00,75.2,66.3,29.82,West,275,2.0,6.0,74,0.00,,CLR,0.00,0.00,VWS V14.01,2013-05-05 02:40:00,
2013-05-04 22:43:00,75.0,66.2,29.82,NW,313,4.0,6.0,74,0.00,,CLR,0.00,0.00,VWS V14.01,2013-05-05 02:43:00,
2013-05-04 22:45:00,75.0,66.2,29.82,WNW,297,2.0,7.0,74,0.00,,CLR,0.00,0.00,VWS V14.01,2013-05-05 02:45:00,
2013-05-04 22:48:00,74.8,66.0,29.82,West,272,3.0,6.0,74,0.00,,CLR,0.00,0.00,VWS V14.01,2013-05-05 02:48:00,
2013-05-04 22:50:00,74.8,66.0,29.82,West,275,3.0,6.0,74,0.00,,CLR,0.00,0.00,VWS V14.01,2013-05-05 02:50:00,
2013-05-04 22:53:00,74.8,66.0,29.82,WSW,258,6.0,8.0,74,0.00,,CLR,0.00,0.00,VWS V14.01,2013-05-05 02:53:00,
2013-05-04 22:55:00,74.8,66.0,29.82,NW,306,4.0,8.0,74,0.00,,CLR,0.00,0.00,VWS V14.01,2013-05-05 02:55:00,
2013-05-04 22:58:00,74.8,66.0,29.82,West,265,5.0,6.0,74,0.00,,CLR,0.00,0.00,VWS V14.01,2013-05-05 02:58:00,
2013-05-04 23:00:00,74.7,65.9,29.82,WNW,300,2.0,6.0,74,0.00,,CLR,0.00,0.00,VWS V14.01,2013-05-05 03:00:00,
2013-05-04 23:03:00,74.6,66.2,29.82,West,269,7.0,7.0,75,0.00,,CLR,0.00,0.00,VWS V14.01,2013-05-05 03:03:00,
2013-05-04 23:05:00,74.6,66.2,29.82,West,263,6.0,7.0,75,0.00,,CLR,0.00,0.00,VWS V14.01,2013-05-05 03:05:00,
2013-05-04 23:08:00,74.4,66.0,29.82,WNW,298,4.0,5.0,75,0.00,,CLR,0.00,0.00,VWS V14.01,2013-05-05 03:08:00,
2013-05-04 23:10:00,74.4,66.0,29.82,WNW,298,3.0,6.0,75,0.00,,CLR,0.00,0.00,VWS V14.01,2013-05-05 03:10:00,
2013-05-04 23:13:00,74.2,65.8,29.82,West,277,5.0,9.0,75,0.00,,CLR,0.00,0.00,VWS V14.01,2013-05-05 03:13:00,
2013-05-04 23:15:00,74.2,65.8,29.82,West,269,8.0,9.0,75,0.00,,CLR,0.00,0.00,VWS V14.01,2013-05-05 03:15:00,
2013-05-04 23:18:00,74.0,66.0,29.83,West,279,5.0,11.0,76,0.00,,CLR,0.00,0.00,VWS V14.01,2013-05-05 03:18:00,
2013-05-04 23:20:00,74.0,66.0,29.83,NW,304,2.0,6.0,76,0.00,,CLR,0.00,0.00,VWS V14.01,2013-05-05 03:20:00,
2013-05-04 23:23:00,73.8,65.8,29.83,WNW,296,4.0,4.0,76,0.00,,CLR,0.00,0.00,VWS V14.01,2013-05-05 03:23:00,
2013-05-04 23:25:00,73.8,65.8,29.83,WNW,290,5.0,6.0,76,0.00,,CLR,0.00,0.00,VWS V14.01,2013-05-05 03:25:00,
2013-05-04 23:28:00,73.7,66.1,29.83,WNW,291,9.0,9.0,77,0.00,,CLR,0.00,0.00,VWS V14.01,2013-05-05 03:28:00,
2013-05-04 23:30:00,73.7,66.1,29.83,NW,306,9.0,9.0,77,0.00,,CLR,0.00,0.00,VWS V14.01,2013-05-05 03:30:00,
2013-05-04 23:33:00,73.5,65.9,29.83,West,273,6.0,6.0,77,0.00,,CLR,0.00,0.00,VWS V14.01,2013-05-05 03:33:00,
2013-05-04 23:35:00,73.5,65.9,29.83,NW,310,3.0,6.0,77,0.00,,CLR,0.00,0.00,VWS V14.01,2013-05-05 03:35:00,
2013-05-04 23:38:00,73.5,65.9,29.83,NW,306,1.0,6.0,77,0.00,,CLR,0.00,0.00,VWS V14.01,2013-05-05 03:38:00,
2013-05-04 23:40:00,73.5,65.9,29.83,NW,306,2.0,6.0,77,0.00,,CLR,0.00,0.00,VWS V14.01,2013-05-05 03:40:00,
2013-05-04 23:43:00,73.3,65.7,29.83,West,281,5.0,8.0,77,0.00,,CLR,0.00,0.00,VWS V14.01,2013-05-05 03:43:00,
2013-05-04 23:45:00,73.3,66.0,29.83,NW,311,5.0,8.0,78,0.00,,CLR,0.00,0.00,VWS V14.01,2013-05-05 03:45:00,
2013-05-04 23:48:00,73.2,65.9,29.83,NW,304,3.0,5.0,78,0.00,,CLR,0.00,0.00,VWS V14.01,2013-05-05 03:48:00,
2013-05-04 23:50:00,73.2,65.9,29.83,West,265,6.0,6.0,78,0.00,,CLR,0.00,0.00,VWS V14.01,2013-05-05 03:50:00,
2013-05-04 23:53:00,73.1,65.8,29.83,WNW,284,3.0,8.0,78,0.00,,CLR,0.00,0.00,VWS V14.01,2013-05-05 03:53:00,
2013-05-04 23:55:00,73.1,65.8,29.83,NW,309,2.0,8.0,78,0.00,,CLR,0.00,0.00,VWS V14.01,2013-05-05 03:55:00,
2013-05-04 23:58:00,73.1,65.8,29.83,WNW,288,2.0,9.0,78,0.00,,CLR,0.00,0.00,VWS V14.01,2013-05-05 03:58:00,